| time (UTC) | temp F | wind direction | speed MPH | gust MPH | rain 1hr in | rain 24hr in | rain mn in | humidity % | barometer mb |
| 20260902232803 | 69 | 34 | 2.0 | 4.0 | 0.00 | 0.00 | 0.00 | 76 | 1008.7 |
| 20260902232603 | 69 | 34 | 2.0 | 4.0 | 0.00 | 0.00 | 0.00 | 75 | 1008.8 |
| 20260902232504 | 70 | 29 | 2.0 | 4.0 | 0.00 | 0.00 | 0.00 | 75 | 1008.8 |
| 20260902232403 | 69 | 19 | 2.0 | 4.0 | 0.00 | 0.00 | 0.00 | 75 | 1008.7 |
| 20260902232306 | 70 | 9 | 1.0 | 4.0 | 0.00 | 0.00 | 0.00 | 75 | 1008.7 |
| 20260902232203 | 70 | 3 | 2.0 | 4.0 | 0.00 | 0.00 | 0.00 | 75 | 1008.8 |
| 20260902232104 | 70 | 357 | 1.0 | 4.0 | 0.00 | 0.00 | 0.00 | 75 | 1008.6 |
| 20260902232003 | 70 | 360 | 2.0 | 4.0 | 0.00 | 0.00 | 0.00 | 75 | 1008.8 |
| 20260902231903 | 70 | 8 | 4.0 | 6.0 | 0.00 | 0.00 | 0.00 | 74 | 1008.7 |
| 20260902231803 | 70 | 9 | 4.0 | 6.0 | 0.00 | 0.00 | 0.00 | 74 | 1008.9 |
| 20260902231703 | 70 | 10 | 3.0 | 6.0 | 0.00 | 0.00 | 0.00 | 74 | 1008.7 |
| 20260902231617 | 70 | 11 | 3.0 | 6.0 | 0.00 | 0.00 | 0.00 | 75 | 1008.8 |
| 20260902231603 | 70 | 13 | 3.0 | 6.0 | 0.00 | 0.00 | 0.00 | 75 | 1008.8 |
| 20260902231503 | 70 | 12 | 3.0 | 6.0 | 0.00 | 0.00 | 0.00 | 74 | 1008.7 |
| 20260902231303 | 70 | 10 | 2.0 | 4.0 | 0.00 | 0.00 | 0.00 | 74 | 1008.7 |
| 20260902231203 | 70 | 9 | 3.0 | 4.0 | 0.00 | 0.00 | 0.00 | 74 | 1008.6 |
| 20260902231103 | 70 | 14 | 2.0 | 7.0 | 0.00 | 0.00 | 0.00 | 74 | 1008.5 |
| 20260902231003 | 70 | 16 | 2.0 | 7.0 | 0.00 | 0.00 | 0.00 | 74 | 1008.8 |
| 20260902230903 | 70 | 20 | 2.0 | 7.0 | 0.00 | 0.00 | 0.00 | 74 | 1008.7 |
| 20260902230803 | 70 | 20 | 3.0 | 7.0 | 0.00 | 0.00 | 0.00 | 74 | 1008.8 |
| 20260902230717 | 70 | 26 | 2.0 | 7.0 | 0.00 | 0.00 | 0.00 | 74 | 1008.7 |
| 20260902230603 | 70 | 21 | 4.0 | 7.0 | 0.00 | 0.00 | 0.00 | 74 | 1008.7 |
| 20260902230403 | 70 | 8 | 4.0 | 6.0 | 0.00 | 0.00 | 0.00 | 74 | 1008.7 |
| 20260902230303 | 70 | 359 | 4.0 | 7.0 | 0.00 | 0.00 | 0.00 | 73 | 1008.5 |
| 20260902230203 | 70 | 354 | 3.0 | 7.0 | 0.00 | 0.00 | 0.00 | 73 | 1008.4 |
| 20260902230118 | 70 | 356 | 3.0 | 7.0 | 0.00 | 0.00 | 0.00 | 73 | 1008.3 |
| 20260902230003 | 70 | 358 | 3.0 | 7.0 | 0.00 | 0.00 | 0.00 | 73 | 1008.4 |
| 20260902225803 | 70 | 358 | 4.0 | 7.0 | 0.00 | 0.00 | 0.00 | 74 | 1008.4 |
| 20260902225703 | 70 | 1 | 1.0 | 6.0 | 0.00 | 0.00 | 0.00 | 73 | 1008.5 |
| 20260902225603 | 70 | 2 | 3.0 | 6.0 | 0.00 | 0.00 | 0.00 | 73 | 1008.5 |
| 20260902225504 | 71 | 1 | 4.0 | 7.0 | 0.00 | 0.00 | 0.00 | 73 | 1008.6 |
| 20260902225404 | 71 | 358 | 3.0 | 7.0 | 0.00 | 0.00 | 0.00 | 73 | 1008.5 |
| 20260902225306 | 71 | 359 | 4.0 | 7.0 | 0.00 | 0.00 | 0.00 | 73 | 1008.5 |
| 20260902225217 | 71 | 358 | 4.0 | 7.0 | 0.00 | 0.00 | 0.00 | 73 | 1008.3 |
| 20260902225203 | 71 | 357 | 4.0 | 7.0 | 0.00 | 0.00 | 0.00 | 73 | 1008.3 |
| 20260902225103 | 71 | 355 | 4.0 | 7.0 | 0.00 | 0.00 | 0.00 | 73 | 1008.5 |
| 20260902224903 | 71 | 360 | 3.0 | 7.0 | 0.00 | 0.00 | 0.00 | 73 | 1008.4 |
| 20260902224803 | 71 | 1 | 4.0 | 7.0 | 0.00 | 0.00 | 0.00 | 73 | 1008.5 |
| 20260902224703 | 71 | 1 | 2.0 | 7.0 | 0.00 | 0.00 | 0.00 | 73 | 1008.6 |
| 20260902224603 | 71 | 1 | 4.0 | 7.0 | 0.00 | 0.00 | 0.00 | 73 | 1008.4 |
| 20260902224503 | 71 | 357 | 4.0 | 7.0 | 0.00 | 0.00 | 0.00 | 73 | 1008.6 |
| 20260902224403 | 71 | 360 | 4.0 | 8.0 | 0.00 | 0.00 | 0.00 | 73 | 1008.6 |
| 20260902224303 | 71 | 360 | 3.0 | 8.0 | 0.00 | 0.00 | 0.00 | 73 | 1008.4 |
| 20260902224203 | 71 | 355 | 3.0 | 8.0 | 0.00 | 0.00 | 0.00 | 73 | 1008.5 |
| 20260902224103 | 71 | 348 | 3.0 | 8.0 | 0.00 | 0.00 | 0.00 | 73 | 1008.5 |
| 20260902224004 | 71 | 354 | 3.0 | 8.0 | 0.00 | 0.00 | 0.00 | 73 | 1008.5 |
| 20260902223903 | 71 | 350 | 2.0 | 6.0 | 0.00 | 0.00 | 0.00 | 73 | 1008.4 |
| 20260902223818 | 71 | 351 | 4.0 | 7.0 | 0.00 | 0.00 | 0.00 | 73 | 1008.4 |
| 20260902223803 | 71 | 353 | 4.0 | 7.0 | 0.00 | 0.00 | 0.00 | 73 | 1008.4 |
| 20260902223703 | 71 | 358 | 3.0 | 7.0 | 0.00 | 0.00 | 0.00 | 73 | 1008.6 |
| 20260902223617 | 71 | 4 | 2.0 | 7.0 | 0.00 | 0.00 | 0.00 | 73 | 1008.4 |
| 20260902223503 | 71 | 4 | 4.0 | 7.0 | 0.00 | 0.00 | 0.00 | 72 | 1008.7 |
| 20260902223418 | 71 | 7 | 4.0 | 7.0 | 0.00 | 0.00 | 0.00 | 72 | 1008.5 |
| 20260902223303 | 71 | 7 | 4.0 | 7.0 | 0.00 | 0.00 | 0.00 | 72 | 1008.5 |
| 20260902223217 | 71 | 5 | 4.0 | 7.0 | 0.00 | 0.00 | 0.00 | 72 | 1008.6 |
| 20260902223103 | 71 | 4 | 3.0 | 6.0 | 0.00 | 0.00 | 0.00 | 72 | 1008.7 |
| 20260902222903 | 71 | 354 | 3.0 | 6.0 | 0.00 | 0.00 | 0.00 | 72 | 1008.6 |
| 20260902222803 | 71 | 354 | 3.0 | 6.0 | 0.00 | 0.00 | 0.00 | 72 | 1008.6 |
| 20260902222703 | 71 | 3 | 3.0 | 6.0 | 0.00 | 0.00 | 0.00 | 71 | 1008.6 |
| 20260902222603 | 72 | 360 | 3.0 | 7.0 | 0.00 | 0.00 | 0.00 | 71 | 1008.6 |
| 20260902222503 | 72 | 358 | 3.0 | 7.0 | 0.00 | 0.00 | 0.00 | 71 | 1008.5 |
| 20260902222403 | 72 | 356 | 3.0 | 7.0 | 0.00 | 0.00 | 0.00 | 71 | 1008.3 |
| 20260902222317 | 72 | 354 | 2.0 | 7.0 | 0.00 | 0.00 | 0.00 | 71 | 1008.5 |
| 20260902222306 | 72 | 356 | 2.0 | 7.0 | 0.00 | 0.00 | 0.00 | 71 | 1008.5 |
| 20260902222203 | 72 | 351 | 2.0 | 9.0 | 0.00 | 0.00 | 0.00 | 71 | 1008.5 |
| 20260902222003 | 72 | 342 | 4.0 | 9.0 | 0.00 | 0.00 | 0.00 | 71 | 1008.5 |
| 20260902221903 | 72 | 341 | 4.0 | 9.0 | 0.00 | 0.00 | 0.00 | 71 | 1008.4 |
| 20260902221808 | 72 | 341 | 4.0 | 9.0 | 0.00 | 0.00 | 0.00 | 70 | 1008.5 |
| 20260902221716 | 72 | 334 | 5.0 | 9.0 | 0.00 | 0.00 | 0.00 | 70 | 1008.6 |
| 20260902221703 | 72 | 336 | 5.0 | 9.0 | 0.00 | 0.00 | 0.00 | 70 | 1008.6 |
| 20260902221603 | 72 | 341 | 3.0 | 8.0 | 0.00 | 0.00 | 0.00 | 70 | 1008.4 |
| 20260902221403 | 72 | 353 | 2.0 | 8.0 | 0.00 | 0.00 | 0.00 | 70 | 1008.5 |
| 20260902221303 | 72 | 355 | 3.0 | 8.0 | 0.00 | 0.00 | 0.00 | 70 | 1008.6 |
| 20260902221203 | 72 | 359 | 4.0 | 8.0 | 0.00 | 0.00 | 0.00 | 70 | 1008.5 |
| 20260902221103 | 72 | 1 | 4.0 | 6.0 | 0.00 | 0.00 | 0.00 | 70 | 1008.5 |
| 20260902221003 | 72 | 358 | 4.0 | 6.0 | 0.00 | 0.00 | 0.00 | 70 | 1008.6 |
| 20260902220904 | 72 | 355 | 2.0 | 7.0 | 0.00 | 0.00 | 0.00 | 70 | 1008.5 |
| 20260902220803 | 72 | 3 | 2.0 | 7.0 | 0.00 | 0.00 | 0.00 | 70 | 1008.4 |
| 20260902220703 | 72 | 4 | 3.0 | 7.0 | 0.00 | 0.00 | 0.00 | 70 | 1008.6 |
| 20260902220603 | 72 | 4 | 4.0 | 7.0 | 0.00 | 0.00 | 0.00 | 70 | 1008.6 |
| 20260902220503 | 72 | 5 | 2.0 | 7.0 | 0.00 | 0.00 | 0.00 | 70 | 1008.5 |
| 20260902220403 | 72 | 1 | 4.0 | 8.0 | 0.00 | 0.00 | 0.00 | 70 | 1008.6 |
| 20260902220303 | 72 | 350 | 3.0 | 8.0 | 0.00 | 0.00 | 0.00 | 70 | 1008.3 |
| 20260902220203 | 72 | 346 | 2.0 | 8.0 | 0.00 | 0.00 | 0.00 | 70 | 1008.3 |
| 20260902220003 | 73 | 348 | 4.0 | 9.0 | 0.00 | 0.00 | 0.00 | 70 | 1008.4 |
| 20260902215903 | 73 | 345 | 4.0 | 9.0 | 0.00 | 0.00 | 0.00 | 69 | 1008.5 |
| 20260902215803 | 73 | 352 | 3.0 | 9.0 | 0.00 | 0.00 | 0.00 | 70 | 1008.4 |
| 20260902215703 | 73 | 357 | 4.0 | 9.0 | 0.00 | 0.00 | 0.00 | 69 | 1008.3 |
| 20260902215603 | 73 | 356 | 6.0 | 9.0 | 0.00 | 0.00 | 0.00 | 69 | 1008.2 |
| 20260902215503 | 73 | 358 | 5.0 | 8.0 | 0.00 | 0.00 | 0.00 | 69 | 1008.3 |
| 20260902215403 | 73 | 6 | 4.0 | 7.0 | 0.00 | 0.00 | 0.00 | 69 | 1008.5 |
| 20260902215306 | 73 | 4 | 4.0 | 11.0 | 0.00 | 0.00 | 0.00 | 69 | 1008.5 |
| 20260902215204 | 73 | 359 | 3.0 | 11.0 | 0.00 | 0.00 | 0.00 | 69 | 1008.5 |
| 20260902215118 | 73 | 355 | 2.0 | 11.0 | 0.00 | 0.00 | 0.00 | 69 | 1008.3 |
| 20260902215103 | 73 | 356 | 4.0 | 11.0 | 0.00 | 0.00 | 0.00 | 69 | 1008.5 |
| 20260902215003 | 73 | 352 | 4.0 | 11.0 | 0.00 | 0.00 | 0.00 | 69 | 1008.4 |
| 20260902214803 | 73 | 351 | 5.0 | 14.0 | 0.00 | 0.00 | 0.00 | 69 | 1008.6 |
| 20260902214718 | 73 | 358 | 4.0 | 14.0 | 0.00 | 0.00 | 0.00 | 69 | 1008.4 |
| 20260902214703 | 73 | 360 | 4.0 | 14.0 | 0.00 | 0.00 | 0.00 | 69 | 1008.6 |
| 20260902214603 | 73 | 3 | 6.0 | 14.0 | 0.00 | 0.00 | 0.00 | 69 | 1008.4 |
| 20260902214403 | 73 | 2 | 5.0 | 14.0 | 0.00 | 0.00 | 0.00 | 68 | 1008.4 |
| 20260902214303 | 73 | 5 | 4.0 | 14.0 | 0.00 | 0.00 | 0.00 | 68 | 1008.4 |
| 20260902214203 | 73 | 351 | 4.0 | 7.0 | 0.00 | 0.00 | 0.00 | 68 | 1008.4 |
| 20260902214103 | 73 | 346 | 4.0 | 11.0 | 0.00 | 0.00 | 0.00 | 68 | 1008.5 |
| 20260902214003 | 73 | 349 | 5.0 | 11.0 | 0.00 | 0.00 | 0.00 | 68 | 1008.4 |
| 20260902213903 | 73 | 346 | 3.0 | 11.0 | 0.00 | 0.00 | 0.00 | 68 | 1008.4 |
| 20260902213803 | 73 | 340 | 4.0 | 11.0 | 0.00 | 0.00 | 0.00 | 68 | 1008.4 |
| 20260902213718 | 74 | 343 | 4.0 | 11.0 | 0.00 | 0.00 | 0.00 | 68 | 1008.6 |
| 20260902213703 | 74 | 344 | 4.0 | 11.0 | 0.00 | 0.00 | 0.00 | 68 | 1008.6 |
| 20260902213603 | 74 | 344 | 5.0 | 11.0 | 0.00 | 0.00 | 0.00 | 68 | 1008.5 |
| 20260902213403 | 74 | 354 | 4.0 | 11.0 | 0.00 | 0.00 | 0.00 | 68 | 1008.4 |
| 20260902213303 | 74 | 351 | 4.0 | 11.0 | 0.00 | 0.00 | 0.00 | 68 | 1008.5 |
| 20260902213203 | 74 | 355 | 4.0 | 11.0 | 0.00 | 0.00 | 0.00 | 68 | 1008.3 |
| 20260902213103 | 74 | 355 | 2.0 | 11.0 | 0.00 | 0.00 | 0.00 | 68 | 1008.7 |
| 20260902213003 | 74 | 356 | 5.0 | 11.0 | 0.00 | 0.00 | 0.00 | 68 | 1008.4 |
| 20260902212903 | 74 | 355 | 5.0 | 11.0 | 0.00 | 0.00 | 0.00 | 68 | 1008.5 |
| 20260902212803 | 74 | 360 | 6.0 | 11.0 | 0.00 | 0.00 | 0.00 | 68 | 1008.7 |
| 20260902212703 | 74 | 4 | 8.0 | 11.0 | 0.00 | 0.00 | 0.00 | 68 | 1008.4 |
| 20260902212603 | 74 | 8 | 5.0 | 9.0 | 0.00 | 0.00 | 0.00 | 68 | 1008.5 |
| 20260902212503 | 74 | 1 | 4.0 | 9.0 | 0.00 | 0.00 | 0.00 | 67 | 1008.6 |
| 20260902212403 | 74 | 1 | 4.0 | 9.0 | 0.00 | 0.00 | 0.00 | 67 | 1008.5 |
| 20260902212305 | 74 | 358 | 4.0 | 9.0 | 0.00 | 0.00 | 0.00 | 67 | 1008.5 |
| 20260902212203 | 74 | 341 | 4.0 | 11.0 | 0.00 | 0.00 | 0.00 | 67 | 1008.6 |
| 20260902212103 | 74 | 346 | 4.0 | 11.0 | 0.00 | 0.00 | 0.00 | 67 | 1008.5 |
| 20260902212003 | 74 | 345 | 4.0 | 11.0 | 0.00 | 0.00 | 0.00 | 67 | 1008.4 |
| 20260902211903 | 74 | 346 | 4.0 | 13.0 | 0.00 | 0.00 | 0.00 | 67 | 1008.5 |
| 20260902211803 | 74 | 344 | 4.0 | 13.0 | 0.00 | 0.00 | 0.00 | 67 | 1008.4 |
| 20260902211703 | 74 | 353 | 6.0 | 13.0 | 0.00 | 0.00 | 0.00 | 67 | 1008.5 |
| 20260902211603 | 74 | 350 | 4.0 | 13.0 | 0.00 | 0.00 | 0.00 | 67 | 1008.4 |
| 20260902211517 | 74 | 351 | 4.0 | 13.0 | 0.00 | 0.00 | 0.00 | 67 | 1008.5 |
| 20260902211503 | 74 | 355 | 5.0 | 13.0 | 0.00 | 0.00 | 0.00 | 67 | 1008.6 |
| 20260902211403 | 74 | 351 | 10.0 | 13.0 | 0.00 | 0.00 | 0.00 | 67 | 1008.8 |
| 20260902211205 | 74 | 11 | 4.0 | 11.0 | 0.00 | 0.00 | 0.00 | 67 | 1008.7 |
| 20260902211117 | 74 | 11 | 5.0 | 11.0 | 0.00 | 0.00 | 0.00 | 67 | 1008.8 |
| 20260902211103 | 74 | 11 | 4.0 | 11.0 | 0.00 | 0.00 | 0.00 | 67 | 1008.7 |
| 20260902211003 | 74 | 12 | 3.0 | 11.0 | 0.00 | 0.00 | 0.00 | 67 | 1008.7 |
| 20260902210803 | 74 | 12 | 4.0 | 11.0 | 0.00 | 0.00 | 0.00 | 67 | 1008.7 |
| 20260902210703 | 74 | 356 | 4.0 | 11.0 | 0.00 | 0.00 | 0.00 | 67 | 1008.6 |
| 20260902210619 | 74 | 352 | 5.0 | 11.0 | 0.00 | 0.00 | 0.00 | 67 | 1008.7 |
| 20260902210603 | 74 | 347 | 5.0 | 11.0 | 0.00 | 0.00 | 0.00 | 67 | 1008.7 |
| 20260902210503 | 74 | 339 | 6.0 | 11.0 | 0.00 | 0.00 | 0.00 | 67 | 1008.5 |
| 20260902210303 | 74 | 332 | 7.0 | 11.0 | 0.00 | 0.00 | 0.00 | 67 | 1008.5 |
| 20260902210203 | 75 | 335 | 7.0 | 13.0 | 0.00 | 0.00 | 0.00 | 66 | 1008.6 |
| 20260902210117 | 75 | 339 | 6.0 | 15.0 | 0.00 | 0.00 | 0.00 | 66 | 1008.5 |
| 20260902210103 | 75 | 342 | 6.0 | 15.0 | 0.00 | 0.00 | 0.00 | 66 | 1008.5 |
| 20260902210003 | 75 | 342 | 6.0 | 15.0 | 0.00 | 0.00 | 0.00 | 66 | 1008.6 |
| 20260902205803 | 75 | 342 | 7.0 | 15.0 | 0.00 | 0.00 | 0.00 | 66 | 1008.5 |
| 20260902205703 | 75 | 357 | 5.0 | 15.0 | 0.00 | 0.00 | 0.00 | 66 | 1008.6 |
| 20260902205616 | 75 | 356 | 5.0 | 15.0 | 0.00 | 0.00 | 0.00 | 66 | 1008.6 |
| 20260902205603 | 75 | 354 | 5.0 | 15.0 | 0.00 | 0.00 | 0.00 | 66 | 1008.6 |
| 20260902205503 | 75 | 358 | 4.0 | 17.0 | 0.00 | 0.00 | 0.00 | 65 | 1008.6 |
| 20260902205418 | 75 | 356 | 3.0 | 17.0 | 0.00 | 0.00 | 0.00 | 65 | 1008.5 |
| 20260902205306 | 75 | 354 | 3.0 | 17.0 | 0.00 | 0.00 | 0.00 | 65 | 1008.5 |
| 20260902205103 | 75 | 354 | 6.0 | 17.0 | 0.00 | 0.00 | 0.00 | 66 | 1008.6 |
| 20260902205004 | 75 | 357 | 11.0 | 17.0 | 0.00 | 0.00 | 0.00 | 65 | 1008.8 |
| 20260902204903 | 75 | 356 | 11.0 | 17.0 | 0.00 | 0.00 | 0.00 | 65 | 1008.8 |
| 20260902204803 | 75 | 359 | 5.0 | 13.0 | 0.00 | 0.00 | 0.00 | 65 | 1008.7 |
| 20260902204703 | 75 | 353 | 7.0 | 11.0 | 0.00 | 0.00 | 0.00 | 65 | 1008.7 |
| 20260902204603 | 75 | 353 | 4.0 | 13.0 | 0.00 | 0.00 | 0.00 | 65 | 1008.7 |
| 20260902204517 | 75 | 350 | 7.0 | 13.0 | 0.00 | 0.00 | 0.00 | 65 | 1008.7 |
| 20260902204503 | 75 | 347 | 7.0 | 13.0 | 0.00 | 0.00 | 0.00 | 65 | 1008.7 |
| 20260902204403 | 75 | 350 | 7.0 | 13.0 | 0.00 | 0.00 | 0.00 | 65 | 1008.7 |
| 20260902204203 | 75 | 348 | 4.0 | 13.0 | 0.00 | 0.00 | 0.00 | 64 | 1008.7 |
| 20260902204103 | 75 | 346 | 6.0 | 13.0 | 0.00 | 0.00 | 0.00 | 64 | 1009.0 |
| 20260902204003 | 76 | 354 | 5.0 | 14.0 | 0.00 | 0.00 | 0.00 | 64 | 1008.9 |
| 20260902203916 | 76 | 357 | 3.0 | 14.0 | 0.00 | 0.00 | 0.00 | 64 | 1008.7 |
| 20260902203903 | 75 | 357 | 4.0 | 14.0 | 0.00 | 0.00 | 0.00 | 64 | 1008.9 |
| 20260902203803 | 75 | 356 | 4.0 | 15.0 | 0.00 | 0.00 | 0.00 | 64 | 1008.4 |
| 20260902203603 | 75 | 360 | 6.0 | 15.0 | 0.00 | 0.00 | 0.00 | 65 | 1008.8 |
| 20260902203503 | 75 | 356 | 8.0 | 15.0 | 0.00 | 0.00 | 0.00 | 64 | 1008.9 |
| 20260902203417 | 75 | 355 | 8.0 | 16.0 | 0.00 | 0.00 | 0.00 | 64 | 1008.9 |
| 20260902203403 | 75 | 354 | 8.0 | 16.0 | 0.00 | 0.00 | 0.00 | 64 | 1008.9 |
| 20260902203303 | 75 | 352 | 10.0 | 16.0 | 0.00 | 0.00 | 0.00 | 64 | 1008.7 |
| 20260902203103 | 75 | 350 | 7.0 | 16.0 | 0.00 | 0.00 | 0.00 | 63 | 1008.8 |
| 20260902203003 | 75 | 350 | 8.0 | 16.0 | 0.00 | 0.00 | 0.00 | 63 | 1009.0 |
| 20260902202903 | 75 | 356 | 8.0 | 16.0 | 0.00 | 0.00 | 0.00 | 63 | 1008.8 |
| 20260902202817 | 75 | 354 | 6.0 | 11.0 | 0.00 | 0.00 | 0.00 | 63 | 1008.8 |
| 20260902202803 | 75 | 353 | 6.0 | 11.0 | 0.00 | 0.00 | 0.00 | 63 | 1008.8 |
| 20260902202703 | 75 | 358 | 5.0 | 11.0 | 0.00 | 0.00 | 0.00 | 63 | 1009.0 |
| 20260902202503 | 76 | 3 | 8.0 | 14.0 | 0.00 | 0.00 | 0.00 | 63 | 1008.7 |
| 20260902202403 | 76 | 3 | 8.0 | 14.0 | 0.00 | 0.00 | 0.00 | 63 | 1008.8 |
| 20260902202306 | 76 | 9 | 3.0 | 14.0 | 0.00 | 0.00 | 0.00 | 62 | 1008.9 |
| 20260902202203 | 76 | 357 | 2.0 | 14.0 | 0.00 | 0.00 | 0.00 | 62 | 1008.9 |
| 20260902202103 | 76 | 350 | 6.0 | 14.0 | 0.00 | 0.00 | 0.00 | 62 | 1008.9 |
| 20260902202004 | 76 | 355 | 6.0 | 13.0 | 0.00 | 0.00 | 0.00 | 62 | 1009.1 |
| 20260902201904 | 76 | 353 | 4.0 | 13.0 | 0.00 | 0.00 | 0.00 | 62 | 1008.8 |
| 20260902201803 | 76 | 352 | 5.0 | 13.0 | 0.00 | 0.00 | 0.00 | 62 | 1009.0 |
| 20260902201703 | 76 | 354 | 5.0 | 11.0 | 0.00 | 0.00 | 0.00 | 62 | 1008.9 |
| 20260902201603 | 76 | 356 | 4.0 | 11.0 | 0.00 | 0.00 | 0.00 | 62 | 1009.0 |
| 20260902201503 | 76 | 350 | 4.0 | 11.0 | 0.00 | 0.00 | 0.00 | 62 | 1008.9 |
| 20260902201410 | 76 | 351 | 8.0 | 14.0 | 0.00 | 0.00 | 0.00 | 62 | 1009.1 |
| 20260902201303 | 76 | 352 | 6.0 | 17.0 | 0.00 | 0.00 | 0.00 | 62 | 1009.0 |
| 20260902201203 | 76 | 347 | 6.0 | 17.0 | 0.00 | 0.00 | 0.00 | 62 | 1009.0 |
| 20260902201103 | 76 | 341 | 6.0 | 17.0 | 0.00 | 0.00 | 0.00 | 62 | 1009.1 |
| 20260902201003 | 76 | 348 | 4.0 | 17.0 | 0.00 | 0.00 | 0.00 | 62 | 1008.9 |
| 20260902200903 | 76 | 350 | 8.0 | 17.0 | 0.00 | 0.00 | 0.00 | 62 | 1008.9 |
| 20260902200803 | 76 | 346 | 11.0 | 20.0 | 0.00 | 0.00 | 0.00 | 62 | 1009.0 |
| 20260902200709 | 76 | 1 | 4.0 | 20.0 | 0.00 | 0.00 | 0.00 | 62 | 1009.0 |
| 20260902200603 | 76 | 9 | 7.0 | 20.0 | 0.00 | 0.00 | 0.00 | 62 | 1009.0 |
| 20260902200503 | 76 | 5 | 7.0 | 20.0 | 0.00 | 0.00 | 0.00 | 62 | 1009.1 |
| 20260902200403 | 76 | 4 | 6.0 | 20.0 | 0.00 | 0.00 | 0.00 | 62 | 1009.1 |
| 20260902200305 | 76 | 7 | 7.0 | 16.0 | 0.00 | 0.00 | 0.00 | 63 | 1009.1 |
| 20260902200103 | 75 | 359 | 8.0 | 16.0 | 0.00 | 0.00 | 0.00 | 63 | 1008.9 |
| 20260902200004 | 75 | 10 | 8.0 | 14.0 | 0.00 | 0.00 | 0.00 | 63 | 1009.1 |
| 20260902195903 | 76 | 358 | 6.0 | 14.0 | 0.00 | 0.00 | 0.00 | 63 | 1009.1 |
| 20260902195603 | 75 | 325 | 8.0 | 17.0 | 0.00 | 0.00 | 0.00 | 63 | 1009.1 |
| 20260902195503 | 75 | 320 | 10.0 | 17.0 | 0.00 | 0.00 | 0.00 | 62 | 1009.0 |
| 20260902195417 | 76 | 318 | 7.0 | 17.0 | 0.00 | 0.00 | 0.00 | 62 | 1009.0 |
| 20260902195403 | 76 | 321 | 7.0 | 17.0 | 0.00 | 0.00 | 0.00 | 62 | 1009.0 |
| 20260902195306 | 76 | 333 | 8.0 | 17.0 | 0.00 | 0.00 | 0.00 | 62 | 1009.0 |
| 20260902195103 | 75 | 341 | 9.0 | 16.0 | 0.00 | 0.00 | 0.00 | 63 | 1009.1 |
| 20260902195018 | 75 | 339 | 10.0 | 16.0 | 0.00 | 0.00 | 0.00 | 63 | 1009.1 |
| 20260902195003 | 75 | 345 | 10.0 | 16.0 | 0.00 | 0.00 | 0.00 | 63 | 1009.1 |
| 20260902194903 | 76 | 350 | 7.0 | 16.0 | 0.00 | 0.00 | 0.00 | 63 | 1009.1 |
| 20260902194703 | 75 | 1 | 9.0 | 16.0 | 0.00 | 0.00 | 0.00 | 63 | 1009.0 |
| 20260902194618 | 75 | 4 | 6.0 | 14.0 | 0.00 | 0.00 | 0.00 | 63 | 1009.0 |
| 20260902194603 | 75 | 1 | 6.0 | 14.0 | 0.00 | 0.00 | 0.00 | 63 | 1009.0 |
| 20260902194503 | 75 | 357 | 6.0 | 15.0 | 0.00 | 0.00 | 0.00 | 63 | 1009.2 |
| 20260902194303 | 76 | 355 | 5.0 | 15.0 | 0.00 | 0.00 | 0.00 | 63 | 1009.0 |
| 20260902194203 | 76 | 352 | 4.0 | 15.0 | 0.00 | 0.00 | 0.00 | 63 | 1009.3 |
| 20260902194103 | 75 | 348 | 7.0 | 15.0 | 0.00 | 0.00 | 0.00 | 63 | 1009.1 |
| 20260902194003 | 75 | 340 | 10.0 | 15.0 | 0.00 | 0.00 | 0.00 | 63 | 1009.1 |
| 20260902193903 | 76 | 334 | 6.0 | 14.0 | 0.00 | 0.00 | 0.00 | 63 | 1009.2 |
| 20260902193803 | 76 | 341 | 6.0 | 11.0 | 0.00 | 0.00 | 0.00 | 63 | 1009.0 |
| 20260902193703 | 76 | 329 | 6.0 | 11.0 | 0.00 | 0.00 | 0.00 | 63 | 1009.1 |
| 20260902193618 | 76 | 329 | 5.0 | 13.0 | 0.00 | 0.00 | 0.00 | 64 | 1009.1 |
| 20260902193603 | 76 | 331 | 5.0 | 13.0 | 0.00 | 0.00 | 0.00 | 64 | 1009.1 |
| 20260902193503 | 76 | 328 | 2.0 | 16.0 | 0.00 | 0.00 | 0.00 | 64 | 1009.1 |
| 20260902193318 | 76 | 333 | 5.0 | 16.0 | 0.00 | 0.00 | 0.00 | 64 | 1009.3 |
| 20260902193303 | 76 | 336 | 5.0 | 16.0 | 0.00 | 0.00 | 0.00 | 64 | 1009.3 |
| 20260902193203 | 75 | 340 | 7.0 | 16.0 | 0.00 | 0.00 | 0.00 | 64 | 1009.2 |
| 20260902193003 | 76 | 341 | 4.0 | 17.0 | 0.00 | 0.00 | 0.00 | 64 | 1009.3 |
| 20260902192903 | 76 | 336 | 5.0 | 17.0 | 0.00 | 0.00 | 0.00 | 64 | 1009.2 |
| 20260902192803 | 75 | 336 | 3.0 | 17.0 | 0.00 | 0.00 | 0.00 | 65 | 1009.1 |
| 20260902192703 | 75 | 338 | 8.0 | 17.0 | 0.00 | 0.00 | 0.00 | 65 | 1009.0 |
| 20260902192618 | 75 | 343 | 11.0 | 17.0 | 0.00 | 0.00 | 0.00 | 64 | 1009.2 |
| 20260902192603 | 75 | 342 | 11.0 | 17.0 | 0.00 | 0.00 | 0.00 | 64 | 1009.2 |
| 20260902192503 | 75 | 346 | 8.0 | 16.0 | 0.00 | 0.00 | 0.00 | 65 | 1009.1 |
| 20260902192306 | 76 | 348 | 4.0 | 15.0 | 0.00 | 0.00 | 0.00 | 64 | 1009.1 |
| 20260902192218 | 75 | 344 | 6.0 | 15.0 | 0.00 | 0.00 | 0.00 | 64 | 1009.3 |
| 20260902192203 | 75 | 345 | 6.0 | 15.0 | 0.00 | 0.00 | 0.00 | 64 | 1009.3 |
| 20260902192103 | 75 | 348 | 9.0 | 15.0 | 0.00 | 0.00 | 0.00 | 64 | 1009.3 |
| 20260902191908 | 75 | 356 | 8.0 | 23.0 | 0.00 | 0.00 | 0.00 | 65 | 1009.2 |
| 20260902191817 | 75 | 352 | 5.0 | 23.0 | 0.00 | 0.00 | 0.00 | 65 | 1009.3 |
| 20260902191803 | 75 | 349 | 5.0 | 23.0 | 0.00 | 0.00 | 0.00 | 65 | 1009.3 |
| 20260902191703 | 75 | 345 | 9.0 | 23.0 | 0.00 | 0.00 | 0.00 | 65 | 1009.3 |
| 20260902191503 | 74 | 336 | 12.0 | 23.0 | 0.00 | 0.00 | 0.00 | 65 | 1009.2 |
| 20260902191403 | 74 | 335 | 15.0 | 23.0 | 0.00 | 0.00 | 0.00 | 65 | 1009.5 |
| 20260902191303 | 75 | 348 | 11.0 | 21.0 | 0.00 | 0.00 | 0.00 | 65 | 1009.5 |
| 20260902191203 | 75 | 343 | 8.0 | 21.0 | 0.00 | 0.00 | 0.00 | 65 | 1009.3 |
| 20260902191103 | 75 | 331 | 12.0 | 21.0 | 0.00 | 0.00 | 0.00 | 65 | 1009.4 |
| 20260902191003 | 74 | 324 | 12.0 | 21.0 | 0.00 | 0.00 | 0.00 | 64 | 1009.3 |
| 20260902190903 | 75 | 324 | 8.0 | 20.0 | 0.00 | 0.00 | 0.00 | 65 | 1009.4 |
| 20260902190803 | 75 | 328 | 8.0 | 22.0 | 0.00 | 0.00 | 0.00 | 65 | 1009.5 |
| 20260902190709 | 75 | 340 | 12.0 | 22.0 | 0.00 | 0.00 | 0.00 | 64 | 1009.5 |
| 20260902190603 | 75 | 350 | 12.0 | 22.0 | 0.00 | 0.00 | 0.00 | 64 | 1009.4 |
| 20260902190503 | 75 | 8 | 8.0 | 22.0 | 0.00 | 0.00 | 0.00 | 64 | 1009.8 |
| 20260902190403 | 75 | 4 | 8.0 | 22.0 | 0.00 | 0.00 | 0.00 | 65 | 1009.4 |
| 20260902190303 | 75 | 349 | 9.0 | 21.0 | 0.00 | 0.00 | 0.00 | 64 | 1009.7 |
| 20260902190203 | 75 | 342 | 6.0 | 21.0 | 0.00 | 0.00 | 0.00 | 64 | 1009.5 |
| 20260902190103 | 75 | 351 | 8.0 | 21.0 | 0.00 | 0.00 | 0.00 | 64 | 1009.4 |
| 20260902190003 | 75 | 350 | 6.0 | 21.0 | 0.00 | 0.00 | 0.00 | 63 | 1009.5 |
| 20260902185903 | 75 | 350 | 8.0 | 21.0 | 0.00 | 0.00 | 0.00 | 64 | 1009.7 |
| 20260902185803 | 75 | 355 | 11.0 | 21.0 | 0.00 | 0.00 | 0.00 | 64 | 1009.4 |
| 20260902185717 | 75 | 351 | 11.0 | 21.0 | 0.00 | 0.00 | 0.00 | 64 | 1009.5 |
| 20260902185703 | 75 | 354 | 11.0 | 21.0 | 0.00 | 0.00 | 0.00 | 64 | 1009.5 |
| 20260902185603 | 75 | 350 | 11.0 | 16.0 | 0.00 | 0.00 | 0.00 | 64 | 1009.5 |
| 20260902185518 | 75 | 352 | 8.0 | 16.0 | 0.00 | 0.00 | 0.00 | 64 | 1009.6 |
| 20260902185403 | 75 | 346 | 11.0 | 18.0 | 0.00 | 0.00 | 0.00 | 64 | 1009.6 |
| 20260902185218 | 76 | 348 | 6.0 | 18.0 | 0.00 | 0.00 | 0.00 | 63 | 1009.5 |
| 20260902185204 | 76 | 347 | 6.0 | 18.0 | 0.00 | 0.00 | 0.00 | 63 | 1009.5 |
| 20260902185103 | 76 | 357 | 5.0 | 18.0 | 0.00 | 0.00 | 0.00 | 64 | 1009.6 |
| 20260902184903 | 75 | 341 | 7.0 | 22.0 | 0.00 | 0.00 | 0.00 | 64 | 1009.5 |
| 20260902184803 | 75 | 348 | 7.0 | 22.0 | 0.00 | 0.00 | 0.00 | 64 | 1009.6 |
| 20260902184703 | 75 | 356 | 8.0 | 22.0 | 0.00 | 0.00 | 0.00 | 64 | 1009.6 |
| 20260902184618 | 75 | 345 | 8.0 | 22.0 | 0.00 | 0.00 | 0.00 | 65 | 1009.7 |
| 20260902184603 | 75 | 343 | 8.0 | 22.0 | 0.00 | 0.00 | 0.00 | 65 | 1009.7 |
| 20260902184503 | 74 | 342 | 13.0 | 22.0 | 0.00 | 0.00 | 0.00 | 65 | 1009.5 |
| 20260902184303 | 74 | 340 | 8.0 | 20.0 | 0.00 | 0.00 | 0.00 | 66 | 1010.0 |
| 20260902184203 | 74 | 335 | 12.0 | 23.0 | 0.00 | 0.00 | 0.00 | 65 | 1009.7 |
| 20260902184103 | 74 | 337 | 12.0 | 23.0 | 0.00 | 0.00 | 0.00 | 65 | 1009.6 |
| 20260902184003 | 75 | 344 | 6.0 | 23.0 | 0.00 | 0.00 | 0.00 | 65 | 1010.0 |
| 20260902183903 | 74 | 337 | 8.0 | 23.0 | 0.00 | 0.00 | 0.00 | 65 | 1009.8 |
| 20260902183803 | 74 | 336 | 9.0 | 23.0 | 0.00 | 0.00 | 0.00 | 65 | 1009.8 |
| 20260902183703 | 74 | 328 | 10.0 | 23.0 | 0.00 | 0.00 | 0.00 | 66 | 1009.9 |
| 20260902183603 | 74 | 327 | 12.0 | 21.0 | 0.00 | 0.00 | 0.00 | 65 | 1009.8 |
| 20260902183503 | 74 | 325 | 11.0 | 21.0 | 0.00 | 0.00 | 0.00 | 65 | 1009.9 |
| 20260902183303 | 74 | 340 | 10.0 | 21.0 | 0.00 | 0.00 | 0.00 | 66 | 1009.9 |
| 20260902183203 | 74 | 345 | 10.0 | 21.0 | 0.00 | 0.00 | 0.00 | 66 | 1010.0 |
| 20260902183113 | 74 | 341 | 10.0 | 21.0 | 0.00 | 0.00 | 0.00 | 66 | 1009.9 |
| 20260902183017 | 74 | 354 | 10.0 | 20.0 | 0.00 | 0.00 | 0.00 | 66 | 1010.0 |
| 20260902183003 | 74 | 353 | 10.0 | 20.0 | 0.00 | 0.00 | 0.00 | 66 | 1010.0 |
| 20260902182903 | 74 | 355 | 11.0 | 20.0 | 0.00 | 0.00 | 0.00 | 65 | 1010.0 |
| 20260902182703 | 75 | 334 | 8.0 | 21.0 | 0.00 | 0.00 | 0.00 | 64 | 1009.9 |
| 20260902182603 | 75 | 346 | 5.0 | 21.0 | 0.00 | 0.00 | 0.00 | 65 | 1010.0 |
| 20260902182518 | 74 | 345 | 10.0 | 21.0 | 0.00 | 0.00 | 0.00 | 65 | 1010.2 |
| 20260902182503 | 74 | 344 | 10.0 | 21.0 | 0.00 | 0.00 | 0.00 | 65 | 1010.2 |
| 20260902182403 | 74 | 342 | 11.0 | 21.0 | 0.00 | 0.00 | 0.00 | 65 | 1010.2 |
| 20260902182203 | 75 | 359 | 9.0 | 17.0 | 0.00 | 0.00 | 0.00 | 65 | 1010.3 |
| 20260902182103 | 74 | 356 | 8.0 | 21.0 | 0.00 | 0.00 | 0.00 | 64 | 1010.0 |
| 20260902182004 | 74 | 351 | 8.0 | 21.0 | 0.00 | 0.00 | 0.00 | 65 | 1010.2 |
| 20260902181903 | 74 | 351 | 8.0 | 21.0 | 0.00 | 0.00 | 0.00 | 65 | 1010.3 |
| 20260902181803 | 74 | 358 | 6.0 | 21.0 | 0.00 | 0.00 | 0.00 | 64 | 1010.3 |
| 20260902181703 | 74 | 1 | 7.0 | 21.0 | 0.00 | 0.00 | 0.00 | 65 | 1010.4 |
| 20260902181603 | 74 | 355 | 12.0 | 21.0 | 0.00 | 0.00 | 0.00 | 65 | 1010.5 |
| 20260902181503 | 74 | 349 | 9.0 | 20.0 | 0.00 | 0.00 | 0.00 | 66 | 1010.7 |
| 20260902181417 | 74 | 343 | 8.0 | 20.0 | 0.00 | 0.00 | 0.00 | 65 | 1010.8 |
| 20260902181403 | 74 | 342 | 8.0 | 20.0 | 0.00 | 0.00 | 0.00 | 65 | 1010.8 |
| 20260902181303 | 74 | 330 | 8.0 | 22.0 | 0.00 | 0.00 | 0.00 | 65 | 1010.4 |
| 20260902181103 | 74 | 327 | 10.0 | 22.0 | 0.00 | 0.00 | 0.00 | 66 | 1010.5 |
| 20260902181003 | 74 | 334 | 10.0 | 22.0 | 0.00 | 0.00 | 0.00 | 66 | 1010.6 |
| 20260902180903 | 74 | 344 | 8.0 | 22.0 | 0.00 | 0.00 | 0.00 | 65 | 1010.6 |
| 20260902180803 | 74 | 344 | 11.0 | 22.0 | 0.00 | 0.00 | 0.00 | 65 | 1010.8 |
| 20260902180703 | 74 | 349 | 11.0 | 17.0 | 0.00 | 0.00 | 0.00 | 66 | 1010.9 |
| 20260902180603 | 74 | 349 | 9.0 | 16.0 | 0.00 | 0.00 | 0.00 | 65 | 1010.7 |
| 20260902180503 | 74 | 350 | 8.0 | 16.0 | 0.00 | 0.00 | 0.00 | 66 | 1010.6 |
| 20260902180303 | 74 | 351 | 7.0 | 20.0 | 0.00 | 0.00 | 0.00 | 66 | 1010.8 |
| 20260902180203 | 74 | 346 | 8.0 | 27.0 | 0.00 | 0.00 | 0.00 | 66 | 1010.8 |
| 20260902180006 | 74 | 356 | 7.0 | 27.0 | 0.00 | 0.00 | 0.00 | 66 | 1010.7 |
| 20260902175903 | 74 | 358 | 8.0 | 27.0 | 0.00 | 0.00 | 0.00 | 66 | 1010.9 |
| 20260902175803 | 74 | 1 | 10.0 | 27.0 | 0.00 | 0.00 | 0.00 | 67 | 1010.9 |
| 20260902175703 | 73 | 2 | 11.0 | 27.0 | 0.00 | 0.00 | 0.00 | 67 | 1010.8 |
| 20260902175603 | 73 | 12 | 10.0 | 24.0 | 0.00 | 0.00 | 0.00 | 67 | 1010.9 |
| 20260902175503 | 74 | 359 | 10.0 | 18.0 | 0.00 | 0.00 | 0.00 | 66 | 1011.0 |
| 20260902175416 | 74 | 353 | 8.0 | 17.0 | 0.00 | 0.00 | 0.00 | 66 | 1010.9 |
| 20260902175403 | 74 | 352 | 8.0 | 17.0 | 0.00 | 0.00 | 0.00 | 66 | 1010.9 |
| 20260902175307 | 74 | 350 | 8.0 | 20.0 | 0.00 | 0.00 | 0.00 | 66 | 1010.9 |
| 20260902175103 | 74 | 343 | 7.0 | 20.0 | 0.00 | 0.00 | 0.00 | 65 | 1011.2 |
| 20260902175003 | 74 | 351 | 8.0 | 20.0 | 0.00 | 0.00 | 0.00 | 65 | 1011.0 |
| 20260902174903 | 74 | 358 | 6.0 | 20.0 | 0.00 | 0.00 | 0.00 | 66 | 1011.1 |
| 20260902174803 | 74 | 351 | 9.0 | 20.0 | 0.00 | 0.00 | 0.00 | 66 | 1010.9 |
| 20260902174703 | 74 | 351 | 10.0 | 24.0 | 0.00 | 0.00 | 0.00 | 66 | 1011.2 |
| 20260902174603 | 73 | 350 | 9.0 | 24.0 | 0.00 | 0.00 | 0.00 | 67 | 1011.3 |
| 20260902174503 | 73 | 356 | 9.0 | 24.0 | 0.00 | 0.00 | 0.00 | 67 | 1011.1 |
| 20260902174403 | 74 | 356 | 10.0 | 24.0 | 0.00 | 0.00 | 0.00 | 66 | 1011.2 |
| 20260902174303 | 74 | 357 | 6.0 | 24.0 | 0.00 | 0.00 | 0.00 | 66 | 1011.3 |
| 20260902174203 | 73 | 10 | 10.0 | 24.0 | 0.00 | 0.00 | 0.00 | 67 | 1011.2 |
| 20260902174103 | 74 | 19 | 11.0 | 23.0 | 0.00 | 0.00 | 0.00 | 66 | 1011.3 |
| 20260902174017 | 74 | 18 | 8.0 | 23.0 | 0.00 | 0.00 | 0.00 | 66 | 1011.5 |
| 20260902174003 | 74 | 16 | 8.0 | 23.0 | 0.00 | 0.00 | 0.00 | 66 | 1011.5 |
| 20260902173903 | 73 | 10 | 10.0 | 23.0 | 0.00 | 0.00 | 0.00 | 67 | 1011.3 |
| 20260902173703 | 73 | 357 | 14.0 | 22.0 | 0.00 | 0.00 | 0.00 | 67 | 1011.2 |
| 20260902173603 | 73 | 358 | 13.0 | 18.0 | 0.00 | 0.00 | 0.00 | 67 | 1011.3 |
| 20260902173503 | 74 | 357 | 9.0 | 18.0 | 0.00 | 0.00 | 0.00 | 66 | 1011.4 |
| 20260902173403 | 74 | 357 | 10.0 | 18.0 | 0.00 | 0.00 | 0.00 | 66 | 1011.6 |
| 20260902173327 | 74 | 357 | 4.0 | 16.0 | 0.00 | 0.00 | 0.00 | 66 | 1011.5 |
| 20260902173303 | 74 | 355 | 4.0 | 16.0 | 0.00 | 0.00 | 0.00 | 66 | 1011.5 |
| 20260902173203 | 74 | 353 | 8.0 | 16.0 | 0.00 | 0.00 | 0.00 | 66 | 1011.5 |
| 20260902173118 | 74 | 339 | 8.0 | 18.0 | 0.00 | 0.00 | 0.00 | 66 | 1011.4 |
| 20260902172917 | 73 | 327 | 11.0 | 18.0 | 0.00 | 0.00 | 0.00 | 66 | 1011.3 |
| 20260902172803 | 73 | 329 | 11.0 | 23.0 | 0.00 | 0.00 | 0.00 | 67 | 1011.6 |
| 20260902172617 | 74 | 356 | 6.0 | 25.0 | 0.00 | 0.00 | 0.00 | 66 | 1011.4 |
| 20260902172603 | 74 | 354 | 6.0 | 25.0 | 0.00 | 0.00 | 0.00 | 66 | 1011.4 |
| 20260902172503 | 74 | 347 | 8.0 | 25.0 | 0.00 | 0.00 | 0.00 | 67 | 1011.8 |
| 20260902172308 | 73 | 345 | 14.0 | 25.0 | 0.00 | 0.00 | 0.00 | 67 | 1011.7 |
| 20260902172203 | 73 | 329 | 9.0 | 21.0 | 0.00 | 0.00 | 0.00 | 66 | 1011.7 |
| 20260902172103 | 74 | 340 | 8.0 | 21.0 | 0.00 | 0.00 | 0.00 | 66 | 1011.7 |
| 20260902172004 | 73 | 350 | 9.0 | 22.0 | 0.00 | 0.00 | 0.00 | 67 | 1011.7 |
| 20260902171903 | 73 | 349 | 9.0 | 22.0 | 0.00 | 0.00 | 0.00 | 67 | 1011.6 |
| 20260902171803 | 73 | 355 | 11.0 | 22.0 | 0.00 | 0.00 | 0.00 | 67 | 1011.8 |
| 20260902171703 | 73 | 356 | 12.0 | 22.0 | 0.00 | 0.00 | 0.00 | 67 | 1011.8 |
| 20260902171603 | 73 | 345 | 12.0 | 22.0 | 0.00 | 0.00 | 0.00 | 67 | 1011.9 |
| 20260902171503 | 73 | 335 | 12.0 | 16.0 | 0.00 | 0.00 | 0.00 | 67 | 1011.9 |
| 20260902171403 | 73 | 329 | 8.0 | 18.0 | 0.00 | 0.00 | 0.00 | 67 | 1012.0 |
| 20260902171303 | 73 | 316 | 10.0 | 20.0 | 0.00 | 0.00 | 0.00 | 66 | 1011.8 |
| 20260902171203 | 74 | 325 | 7.0 | 20.0 | 0.00 | 0.00 | 0.00 | 66 | 1012.0 |
| 20260902171103 | 73 | 345 | 7.0 | 20.0 | 0.00 | 0.00 | 0.00 | 67 | 1011.9 |
| 20260902171003 | 73 | 342 | 8.0 | 20.0 | 0.00 | 0.00 | 0.00 | 67 | 1012.1 |
| 20260902170903 | 73 | 357 | 12.0 | 20.0 | 0.00 | 0.00 | 0.00 | 67 | 1011.9 |
| 20260902170803 | 73 | 7 | 14.0 | 20.0 | 0.00 | 0.00 | 0.00 | 67 | 1012.1 |
| 20260902170703 | 73 | 1 | 8.0 | 18.0 | 0.00 | 0.00 | 0.00 | 67 | 1011.9 |
| 20260902170603 | 73 | 344 | 9.0 | 18.0 | 0.00 | 0.00 | 0.00 | 68 | 1011.9 |
| 20260902170503 | 73 | 350 | 13.0 | 18.0 | 0.00 | 0.00 | 0.00 | 68 | 1012.0 |
| 20260902170403 | 74 | 344 | 8.0 | 13.0 | 0.00 | 0.00 | 0.00 | 67 | 1012.2 |
| 20260902170303 | 73 | 1 | 3.0 | 20.0 | 0.00 | 0.00 | 0.00 | 68 | 1012.1 |
| 20260902170203 | 73 | 2 | 5.0 | 20.0 | 0.00 | 0.00 | 0.00 | 68 | 1012.2 |
| 20260902170118 | 73 | 6 | 7.0 | 20.0 | 0.00 | 0.00 | 0.00 | 68 | 1012.1 |
| 20260902170003 | 73 | 13 | 6.0 | 20.0 | 0.00 | 0.00 | 0.00 | 69 | 1012.1 |
| 20260902165718 | 72 | 7 | 10.0 | 17.0 | 0.00 | 0.00 | 0.00 | 69 | 1012.3 |
| 20260902165703 | 72 | 6 | 10.0 | 17.0 | 0.00 | 0.00 | 0.00 | 69 | 1012.3 |
| 20260902165603 | 73 | 4 | 4.0 | 17.0 | 0.00 | 0.00 | 0.00 | 68 | 1012.5 |
| 20260902165403 | 73 | 357 | 6.0 | 17.0 | 0.00 | 0.00 | 0.00 | 69 | 1012.3 |
| 20260902165308 | 72 | 357 | 9.0 | 22.0 | 0.00 | 0.00 | 0.00 | 69 | 1012.6 |
| 20260902165203 | 73 | 345 | 6.0 | 22.0 | 0.00 | 0.00 | 0.00 | 69 | 1012.5 |
| 20260902165118 | 73 | 337 | 5.0 | 22.0 | 0.00 | 0.00 | 0.00 | 69 | 1012.4 |
| 20260902165103 | 73 | 340 | 6.0 | 22.0 | 0.00 | 0.00 | 0.00 | 69 | 1012.4 |
| 20260902165003 | 72 | 351 | 8.0 | 22.0 | 0.00 | 0.00 | 0.00 | 70 | 1012.3 |
| 20260902164917 | 72 | 355 | 8.0 | 22.0 | 0.00 | 0.00 | 0.00 | 70 | 1012.4 |
| 20260902164803 | 72 | 345 | 9.0 | 22.0 | 0.00 | 0.00 | 0.00 | 70 | 1012.4 |
| 20260902164603 | 72 | 344 | 9.0 | 18.0 | 0.00 | 0.00 | 0.00 | 70 | 1012.6 |
| 20260902164503 | 72 | 334 | 9.0 | 18.0 | 0.00 | 0.00 | 0.00 | 70 | 1012.7 |
| 20260902164403 | 72 | 319 | 10.0 | 18.0 | 0.00 | 0.00 | 0.00 | 70 | 1012.6 |
| 20260902164317 | 72 | 326 | 8.0 | 18.0 | 0.00 | 0.00 | 0.00 | 70 | 1012.7 |
| 20260902164203 | 72 | 319 | 9.0 | 18.0 | 0.00 | 0.00 | 0.00 | 69 | 1012.7 |
| 20260902164003 | 73 | 321 | 8.0 | 22.0 | 0.00 | 0.00 | 0.00 | 68 | 1012.7 |
| 20260902163903 | 73 | 336 | 3.0 | 22.0 | 0.00 | 0.00 | 0.00 | 69 | 1012.8 |
| 20260902163803 | 72 | 341 | 4.0 | 22.0 | 0.00 | 0.00 | 0.00 | 70 | 1012.9 |
| 20260902163703 | 72 | 339 | 4.0 | 22.0 | 0.00 | 0.00 | 0.00 | 70 | 1012.9 |
| 20260902163603 | 72 | 333 | 11.0 | 22.0 | 0.00 | 0.00 | 0.00 | 71 | 1012.9 |
| 20260902163503 | 71 | 315 | 9.0 | 20.0 | 0.00 | 0.00 | 0.00 | 71 | 1012.8 |
| 20260902163403 | 72 | 311 | 11.0 | 20.0 | 0.00 | 0.00 | 0.00 | 70 | 1013.3 |
| 20260902163303 | 72 | 311 | 10.0 | 20.0 | 0.00 | 0.00 | 0.00 | 70 | 1013.0 |
| 20260902163203 | 72 | 315 | 8.0 | 20.0 | 0.00 | 0.00 | 0.00 | 71 | 1013.0 |
| 20260902163003 | 71 | 352 | 13.0 | 23.0 | 0.00 | 0.00 | 0.00 | 71 | 1013.0 |
| 20260902162903 | 71 | 4 | 11.0 | 23.0 | 0.00 | 0.00 | 0.00 | 70 | 1012.9 |
| 20260902162803 | 72 | 4 | 9.0 | 23.0 | 0.00 | 0.00 | 0.00 | 70 | 1012.9 |
| 20260902162703 | 72 | 358 | 9.0 | 23.0 | 0.00 | 0.00 | 0.00 | 70 | 1012.9 |
| 20260902162603 | 72 | 350 | 11.0 | 23.0 | 0.00 | 0.00 | 0.00 | 70 | 1013.1 |
| 20260902162504 | 72 | 344 | 13.0 | 20.0 | 0.00 | 0.00 | 0.00 | 69 | 1013.0 |
| 20260902162403 | 72 | 330 | 11.0 | 20.0 | 0.00 | 0.00 | 0.00 | 69 | 1013.2 |
| 20260902162306 | 72 | 327 | 11.0 | 20.0 | 0.00 | 0.00 | 0.00 | 68 | 1013.1 |
| 20260902162203 | 72 | 337 | 8.0 | 16.0 | 0.00 | 0.00 | 0.00 | 68 | 1013.0 |
| 20260902162103 | 73 | 350 | 6.0 | 21.0 | 0.00 | 0.00 | 0.00 | 69 | 1013.1 |
| 20260902162004 | 72 | 357 | 7.0 | 21.0 | 0.00 | 0.00 | 0.00 | 69 | 1013.2 |
| 20260902161903 | 72 | 346 | 7.0 | 21.0 | 0.00 | 0.00 | 0.00 | 70 | 1013.3 |
| 20260902161803 | 72 | 341 | 7.0 | 21.0 | 0.00 | 0.00 | 0.00 | 70 | 1013.1 |
| 20260902161703 | 72 | 342 | 10.0 | 21.0 | 0.00 | 0.00 | 0.00 | 70 | 1013.2 |
| 20260902161603 | 71 | 344 | 11.0 | 21.0 | 0.00 | 0.00 | 0.00 | 70 | 1013.3 |
| 20260902161503 | 72 | 332 | 15.0 | 20.0 | 0.00 | 0.00 | 0.00 | 70 | 1013.2 |
| 20260902161403 | 72 | 345 | 8.0 | 20.0 | 0.00 | 0.00 | 0.00 | 70 | 1013.3 |
| 20260902161303 | 72 | 343 | 9.0 | 25.0 | 0.00 | 0.00 | 0.00 | 70 | 1013.2 |
| 20260902161203 | 71 | 342 | 9.0 | 25.0 | 0.00 | 0.00 | 0.00 | 71 | 1013.2 |
| 20260902161103 | 72 | 345 | 9.0 | 25.0 | 0.00 | 0.00 | 0.00 | 70 | 1013.3 |
| 20260902161018 | 71 | 348 | 8.0 | 25.0 | 0.00 | 0.00 | 0.00 | 71 | 1013.4 |
| 20260902161003 | 71 | 345 | 8.0 | 25.0 | 0.00 | 0.00 | 0.00 | 71 | 1013.4 |
| 20260902160917 | 71 | 341 | 9.0 | 25.0 | 0.00 | 0.00 | 0.00 | 71 | 1013.6 |
| 20260902160903 | 71 | 340 | 9.0 | 25.0 | 0.00 | 0.00 | 0.00 | 71 | 1013.6 |
| 20260902160603 | 72 | 356 | 9.0 | 17.0 | 0.00 | 0.00 | 0.00 | 70 | 1013.5 |
| 20260902160503 | 72 | 21 | 7.0 | 15.0 | 0.00 | 0.00 | 0.00 | 69 | 1013.7 |
| 20260902160418 | 72 | 16 | 4.0 | 17.0 | 0.00 | 0.00 | 0.00 | 69 | 1013.5 |
| 20260902160403 | 72 | 13 | 4.0 | 17.0 | 0.00 | 0.00 | 0.00 | 69 | 1013.5 |
| 20260902160303 | 72 | 11 | 6.0 | 17.0 | 0.00 | 0.00 | 0.00 | 70 | 1013.5 |
| 20260902160103 | 72 | 344 | 10.0 | 18.0 | 0.00 | 0.00 | 0.00 | 70 | 1013.7 |
| 20260902160005 | 72 | 331 | 10.0 | 20.0 | 0.00 | 0.00 | 0.00 | 70 | 1013.7 |
| 20260902155903 | 72 | 328 | 8.0 | 20.0 | 0.00 | 0.00 | 0.00 | 70 | 1013.7 |
| 20260902155803 | 72 | 327 | 8.0 | 20.0 | 0.00 | 0.00 | 0.00 | 70 | 1013.6 |
| 20260902155703 | 71 | 323 | 11.0 | 20.0 | 0.00 | 0.00 | 0.00 | 70 | 1013.7 |
| 20260902155603 | 71 | 316 | 13.0 | 20.0 | 0.00 | 0.00 | 0.00 | 70 | 1013.8 |
| 20260902155503 | 71 | 311 | 11.0 | 20.0 | 0.00 | 0.00 | 0.00 | 70 | 1013.9 |
| 20260902155418 | 71 | 313 | 11.0 | 20.0 | 0.00 | 0.00 | 0.00 | 69 | 1013.7 |
| 20260902155403 | 71 | 316 | 11.0 | 20.0 | 0.00 | 0.00 | 0.00 | 69 | 1013.7 |
| 20260902155306 | 72 | 307 | 8.0 | 20.0 | 0.00 | 0.00 | 0.00 | 69 | 1013.7 |
| 20260902155217 | 72 | 308 | 7.0 | 20.0 | 0.00 | 0.00 | 0.00 | 70 | 1013.8 |
| 20260902155103 | 71 | 320 | 11.0 | 20.0 | 0.00 | 0.00 | 0.00 | 70 | 1014.1 |
| 20260902154903 | 72 | 325 | 8.0 | 18.0 | 0.00 | 0.00 | 0.00 | 69 | 1014.1 |
| 20260902154817 | 71 | 327 | 8.0 | 18.0 | 0.00 | 0.00 | 0.00 | 70 | 1014.0 |
| 20260902154803 | 71 | 330 | 8.0 | 18.0 | 0.00 | 0.00 | 0.00 | 70 | 1014.0 |
| 20260902154718 | 72 | 337 | 8.0 | 17.0 | 0.00 | 0.00 | 0.00 | 69 | 1013.9 |
| 20260902154703 | 72 | 337 | 11.0 | 17.0 | 0.00 | 0.00 | 0.00 | 69 | 1014.0 |
| 20260902154403 | 72 | 343 | 7.0 | 11.0 | 0.00 | 0.00 | 0.00 | 69 | 1014.2 |
| 20260902154313 | 72 | 359 | 5.0 | 11.0 | 0.00 | 0.00 | 0.00 | 69 | 1014.0 |
| 20260902154203 | 72 | 349 | 5.0 | 16.0 | 0.00 | 0.00 | 0.00 | 69 | 1014.2 |
| 20260902154103 | 72 | 346 | 4.0 | 16.0 | 0.00 | 0.00 | 0.00 | 69 | 1014.1 |
| 20260902154003 | 72 | 348 | 8.0 | 17.0 | 0.00 | 0.00 | 0.00 | 68 | 1014.3 |
| 20260902153917 | 72 | 352 | 6.0 | 17.0 | 0.00 | 0.00 | 0.00 | 68 | 1014.3 |
| 20260902153903 | 72 | 354 | 6.0 | 20.0 | 0.00 | 0.00 | 0.00 | 68 | 1014.4 |
| 20260902153603 | 72 | 2 | 8.0 | 22.0 | 0.00 | 0.00 | 0.00 | 68 | 1014.2 |
| 20260902153503 | 71 | 358 | 8.0 | 27.0 | 0.00 | 0.00 | 0.00 | 69 | 1014.3 |
| 20260902153403 | 71 | 355 | 10.0 | 27.0 | 0.00 | 0.00 | 0.00 | 69 | 1014.2 |
| 20260902153318 | 71 | 358 | 15.0 | 27.0 | 0.00 | 0.00 | 0.00 | 69 | 1014.4 |
| 20260902153303 | 71 | 1 | 15.0 | 27.0 | 0.00 | 0.00 | 0.00 | 69 | 1014.4 |
| 20260902153203 | 71 | 3 | 14.0 | 27.0 | 0.00 | 0.00 | 0.00 | 68 | 1014.5 |
| 20260902153003 | 71 | 360 | 13.0 | 27.0 | 0.00 | 0.00 | 0.00 | 69 | 1014.5 |
| 20260902152903 | 71 | 357 | 12.0 | 27.0 | 0.00 | 0.00 | 0.00 | 69 | 1014.2 |
| 20260902152803 | 71 | 359 | 10.0 | 27.0 | 0.00 | 0.00 | 0.00 | 68 | 1014.5 |
| 20260902152703 | 71 | 349 | 12.0 | 27.0 | 0.00 | 0.00 | 0.00 | 68 | 1014.4 |
| 20260902152603 | 71 | 347 | 11.0 | 27.0 | 0.00 | 0.00 | 0.00 | 69 | 1014.4 |
| 20260902152517 | 71 | 340 | 15.0 | 27.0 | 0.00 | 0.00 | 0.00 | 69 | 1014.5 |
| 20260902152503 | 71 | 337 | 15.0 | 27.0 | 0.00 | 0.00 | 0.00 | 69 | 1014.5 |
| 20260902152403 | 71 | 351 | 10.0 | 27.0 | 0.00 | 0.00 | 0.00 | 69 | 1014.6 |
| 20260902152203 | 71 | 3 | 10.0 | 27.0 | 0.00 | 0.00 | 0.00 | 68 | 1014.4 |
| 20260902152103 | 71 | 10 | 14.0 | 27.0 | 0.00 | 0.00 | 0.00 | 68 | 1014.6 |
| 20260902152003 | 71 | 11 | 8.0 | 22.0 | 0.00 | 0.00 | 0.00 | 68 | 1014.5 |
| 20260902151916 | 71 | 1 | 11.0 | 22.0 | 0.00 | 0.00 | 0.00 | 68 | 1014.5 |
| 20260902151903 | 71 | 356 | 10.0 | 22.0 | 0.00 | 0.00 | 0.00 | 69 | 1014.5 |
| 20260902151803 | 71 | 342 | 15.0 | 22.0 | 0.00 | 0.00 | 0.00 | 69 | 1014.5 |
| 20260902151603 | 71 | 335 | 15.0 | 21.0 | 0.00 | 0.00 | 0.00 | 69 | 1014.7 |
| 20260902151503 | 71 | 344 | 9.0 | 20.0 | 0.00 | 0.00 | 0.00 | 69 | 1014.6 |
| 20260902151403 | 71 | 358 | 5.0 | 20.0 | 0.00 | 0.00 | 0.00 | 69 | 1014.4 |
| 20260902151303 | 71 | 14 | 12.0 | 21.0 | 0.00 | 0.00 | 0.00 | 69 | 1014.6 |
| 20260902151203 | 71 | 15 | 9.0 | 21.0 | 0.00 | 0.00 | 0.00 | 70 | 1014.5 |
| 20260902151103 | 71 | 355 | 5.0 | 21.0 | 0.00 | 0.00 | 0.00 | 70 | 1014.6 |
| 20260902151003 | 71 | 336 | 5.0 | 21.0 | 0.00 | 0.00 | 0.00 | 70 | 1014.7 |
| 20260902150903 | 71 | 342 | 10.0 | 21.0 | 0.00 | 0.00 | 0.00 | 71 | 1014.6 |
| 20260902150817 | 71 | 337 | 13.0 | 21.0 | 0.00 | 0.00 | 0.00 | 72 | 1014.7 |
| 20260902150803 | 71 | 332 | 13.0 | 21.0 | 0.00 | 0.00 | 0.00 | 72 | 1014.7 |
| 20260902150703 | 71 | 325 | 12.0 | 20.0 | 0.00 | 0.00 | 0.00 | 72 | 1014.7 |
| 20260902150503 | 71 | 338 | 7.0 | 22.0 | 0.00 | 0.00 | 0.00 | 71 | 1014.7 |
| 20260902150403 | 71 | 331 | 4.0 | 22.0 | 0.00 | 0.00 | 0.00 | 71 | 1014.6 |
| 20260902150303 | 71 | 327 | 8.0 | 22.0 | 0.00 | 0.00 | 0.00 | 72 | 1014.5 |
| 20260902150203 | 70 | 328 | 11.0 | 22.0 | 0.00 | 0.00 | 0.00 | 72 | 1014.7 |
| 20260902150103 | 70 | 327 | 10.0 | 22.0 | 0.00 | 0.00 | 0.00 | 74 | 1014.8 |
| 20260902150003 | 70 | 333 | 10.0 | 22.0 | 0.00 | 0.00 | 0.00 | 74 | 1014.7 |
| 20260902145918 | 70 | 329 | 11.0 | 21.0 | 0.00 | 0.00 | 0.00 | 74 | 1014.6 |
| 20260902145903 | 70 | 326 | 6.0 | 21.0 | 0.00 | 0.00 | 0.00 | 75 | 1014.7 |
| 20260902145803 | 70 | 318 | 9.0 | 21.0 | 0.00 | 0.00 | 0.00 | 75 | 1014.6 |
| 20260902145717 | 70 | 318 | 5.0 | 21.0 | 0.00 | 0.00 | 0.00 | 75 | 1014.5 |
| 20260902145603 | 70 | 328 | 6.0 | 21.0 | 0.00 | 0.00 | 0.00 | 76 | 1014.8 |
| 20260902145517 | 69 | 323 | 8.0 | 21.0 | 0.00 | 0.00 | 0.00 | 76 | 1014.8 |
| 20260902145403 | 69 | 343 | 5.0 | 15.0 | 0.00 | 0.00 | 0.00 | 76 | 1014.8 |
| 20260902145203 | 69 | 345 | 9.0 | 16.0 | 0.00 | 0.00 | 0.00 | 75 | 1014.6 |
| 20260902145117 | 70 | 347 | 5.0 | 16.0 | 0.00 | 0.00 | 0.00 | 76 | 1014.8 |
| 20260902145103 | 69 | 348 | 8.0 | 17.0 | 0.00 | 0.00 | 0.00 | 76 | 1014.6 |
| 20260902145003 | 69 | 359 | 9.0 | 17.0 | 0.00 | 0.00 | 0.00 | 76 | 1014.6 |
| 20260902144803 | 69 | 10 | 7.0 | 17.0 | 0.00 | 0.00 | 0.00 | 76 | 1014.8 |
| 20260902144703 | 69 | 20 | 6.0 | 17.0 | 0.00 | 0.00 | 0.00 | 76 | 1015.0 |
| 20260902144603 | 69 | 8 | 10.0 | 17.0 | 0.00 | 0.00 | 0.00 | 75 | 1014.8 |
| 20260902144503 | 69 | 2 | 8.0 | 16.0 | 0.00 | 0.00 | 0.00 | 75 | 1015.0 |
| 20260902144403 | 69 | 359 | 8.0 | 16.0 | 0.00 | 0.00 | 0.00 | 75 | 1014.9 |
| 20260902144303 | 69 | 349 | 11.0 | 16.0 | 0.00 | 0.00 | 0.00 | 75 | 1014.9 |
| 20260902144203 | 69 | 347 | 6.0 | 18.0 | 0.00 | 0.00 | 0.00 | 75 | 1015.0 |
| 20260902144103 | 69 | 339 | 5.0 | 18.0 | 0.00 | 0.00 | 0.00 | 75 | 1015.0 |
| 20260902144003 | 69 | 342 | 10.0 | 18.0 | 0.00 | 0.00 | 0.00 | 75 | 1015.2 |
| 20260902143905 | 69 | 347 | 5.0 | 21.0 | 0.00 | 0.00 | 0.00 | 76 | 1015.0 |
| 20260902143803 | 69 | 356 | 8.0 | 21.0 | 0.00 | 0.00 | 0.00 | 76 | 1015.1 |
| 20260902143703 | 69 | 357 | 9.0 | 21.0 | 0.00 | 0.00 | 0.00 | 76 | 1015.0 |
| 20260902143603 | 69 | 353 | 8.0 | 21.0 | 0.00 | 0.00 | 0.00 | 76 | 1015.2 |
| 20260902143504 | 69 | 355 | 10.0 | 21.0 | 0.00 | 0.00 | 0.00 | 76 | 1015.3 |
| 20260902143403 | 69 | 359 | 10.0 | 20.0 | 0.00 | 0.00 | 0.00 | 75 | 1015.2 |
| 20260902143303 | 69 | 337 | 5.0 | 22.0 | 0.00 | 0.00 | 0.00 | 76 | 1015.0 |
| 20260902143203 | 69 | 335 | 6.0 | 22.0 | 0.00 | 0.00 | 0.00 | 76 | 1015.2 |
| 20260902143103 | 68 | 354 | 8.0 | 22.0 | 0.00 | 0.00 | 0.00 | 76 | 1015.0 |
| 20260902143003 | 68 | 348 | 8.0 | 22.0 | 0.00 | 0.00 | 0.00 | 77 | 1015.0 |
| 20260902142903 | 68 | 333 | 9.0 | 22.0 | 0.00 | 0.00 | 0.00 | 77 | 1015.3 |
| 20260902142803 | 68 | 338 | 13.0 | 22.0 | 0.00 | 0.00 | 0.00 | 77 | 1015.2 |
| 20260902142705 | 68 | 341 | 9.0 | 20.0 | 0.00 | 0.00 | 0.00 | 76 | 1015.2 |
| 20260902142605 | 68 | 336 | 10.0 | 20.0 | 0.00 | 0.00 | 0.00 | 76 | 1015.2 |
| 20260902142503 | 68 | 343 | 6.0 | 20.0 | 0.00 | 0.00 | 0.00 | 76 | 1015.3 |
| 20260902142403 | 68 | 350 | 12.0 | 20.0 | 0.00 | 0.00 | 0.00 | 76 | 1015.1 |
| 20260902142318 | 69 | 344 | 6.0 | 16.0 | 0.00 | 0.00 | 0.00 | 76 | 1015.5 |
| 20260902142306 | 69 | 344 | 4.0 | 18.0 | 0.00 | 0.00 | 0.00 | 76 | 1015.3 |
| 20260902142203 | 68 | 348 | 6.0 | 18.0 | 0.00 | 0.00 | 0.00 | 77 | 1015.2 |
| 20260902142117 | 68 | 354 | 7.0 | 18.0 | 0.00 | 0.00 | 0.00 | 76 | 1015.4 |
| 20260902142003 | 68 | 348 | 8.0 | 18.0 | 0.00 | 0.00 | 0.00 | 77 | 1015.3 |
| 20260902141918 | 68 | 352 | 8.0 | 18.0 | 0.00 | 0.00 | 0.00 | 77 | 1015.2 |
| 20260902141803 | 68 | 13 | 9.0 | 22.0 | 0.00 | 0.00 | 0.00 | 77 | 1015.3 |
| 20260902141603 | 68 | 352 | 8.0 | 22.0 | 0.00 | 0.00 | 0.00 | 78 | 1015.3 |
| 20260902141503 | 68 | 345 | 9.0 | 22.0 | 0.00 | 0.00 | 0.00 | 77 | 1015.2 |
| 20260902141403 | 68 | 345 | 8.0 | 22.0 | 0.00 | 0.00 | 0.00 | 78 | 1015.1 |
| 20260902141303 | 67 | 340 | 13.0 | 22.0 | 0.00 | 0.00 | 0.00 | 78 | 1015.3 |
| 20260902141103 | 67 | 353 | 11.0 | 22.0 | 0.00 | 0.00 | 0.00 | 78 | 1015.3 |
| 20260902141003 | 67 | 9 | 10.0 | 20.0 | 0.00 | 0.00 | 0.00 | 78 | 1015.4 |
| 20260902140903 | 68 | 4 | 4.0 | 20.0 | 0.00 | 0.00 | 0.00 | 78 | 1015.0 |
| 20260902140808 | 67 | 357 | 8.0 | 20.0 | 0.00 | 0.00 | 0.00 | 79 | 1015.3 |
| 20260902140717 | 67 | 358 | 7.0 | 20.0 | 0.00 | 0.00 | 0.00 | 79 | 1015.2 |
| 20260902140703 | 67 | 2 | 8.0 | 20.0 | 0.00 | 0.00 | 0.00 | 79 | 1015.2 |
| 20260902140603 | 67 | 13 | 11.0 | 20.0 | 0.00 | 0.00 | 0.00 | 79 | 1015.3 |
| 20260902140516 | 67 | 11 | 5.0 | 18.0 | 0.00 | 0.00 | 0.00 | 79 | 1015.3 |
| 20260902140403 | 67 | 358 | 10.0 | 18.0 | 0.00 | 0.00 | 0.00 | 79 | 1015.4 |
| 20260902140203 | 67 | 353 | 11.0 | 23.0 | 0.00 | 0.00 | 0.00 | 80 | 1015.5 |
| 20260902140103 | 67 | 342 | 11.0 | 23.0 | 0.00 | 0.00 | 0.00 | 80 | 1015.3 |
| 20260902140003 | 67 | 345 | 8.0 | 23.0 | 0.00 | 0.00 | 0.00 | 80 | 1015.3 |
| 20260902135903 | 66 | 342 | 13.0 | 23.0 | 0.00 | 0.00 | 0.00 | 80 | 1015.5 |
| 20260902135817 | 66 | 328 | 10.0 | 23.0 | 0.00 | 0.00 | 0.00 | 81 | 1015.5 |
| 20260902135703 | 66 | 339 | 13.0 | 23.0 | 0.00 | 0.00 | 0.00 | 81 | 1015.4 |
| 20260902135503 | 67 | 328 | 9.0 | 16.0 | 0.00 | 0.00 | 0.00 | 80 | 1015.4 |
| 20260902135403 | 67 | 339 | 8.0 | 16.0 | 0.00 | 0.00 | 0.00 | 80 | 1015.5 |
| 20260902135306 | 67 | 339 | 8.0 | 16.0 | 0.00 | 0.00 | 0.00 | 80 | 1015.4 |
| 20260902135203 | 67 | 334 | 9.0 | 16.0 | 0.00 | 0.00 | 0.00 | 81 | 1015.5 |
| 20260902135117 | 67 | 332 | 8.0 | 16.0 | 0.00 | 0.00 | 0.00 | 81 | 1015.7 |
| 20260902135103 | 66 | 332 | 7.0 | 16.0 | 0.00 | 0.00 | 0.00 | 81 | 1015.7 |
| 20260902135003 | 66 | 329 | 8.0 | 17.0 | 0.00 | 0.00 | 0.00 | 81 | 1015.4 |
| 20260902134803 | 66 | 322 | 6.0 | 20.0 | 0.00 | 0.00 | 0.00 | 81 | 1015.5 |
| 20260902134703 | 66 | 327 | 9.0 | 20.0 | 0.00 | 0.00 | 0.00 | 81 | 1015.6 |
| 20260902134603 | 66 | 326 | 6.0 | 20.0 | 0.00 | 0.00 | 0.00 | 81 | 1015.6 |
| 20260902134518 | 66 | 326 | 10.0 | 20.0 | 0.00 | 0.00 | 0.00 | 81 | 1015.5 |
| 20260902134503 | 66 | 329 | 10.0 | 20.0 | 0.00 | 0.00 | 0.00 | 81 | 1015.5 |
| 20260902134403 | 66 | 337 | 11.0 | 20.0 | 0.00 | 0.00 | 0.00 | 81 | 1015.5 |
| 20260902134203 | 66 | 349 | 11.0 | 20.0 | 0.00 | 0.00 | 0.00 | 81 | 1015.7 |
| 20260902134117 | 66 | 345 | 8.0 | 18.0 | 0.00 | 0.00 | 0.00 | 81 | 1015.7 |
| 20260902134103 | 66 | 348 | 8.0 | 18.0 | 0.00 | 0.00 | 0.00 | 81 | 1015.7 |
| 20260902134003 | 66 | 345 | 7.0 | 18.0 | 0.00 | 0.00 | 0.00 | 81 | 1015.6 |
| 20260902133803 | 67 | 337 | 7.0 | 13.0 | 0.00 | 0.00 | 0.00 | 81 | 1015.7 |
| 20260902133703 | 67 | 333 | 3.0 | 13.0 | 0.00 | 0.00 | 0.00 | 81 | 1015.6 |
| 20260902133603 | 66 | 334 | 6.0 | 13.0 | 0.00 | 0.00 | 0.00 | 81 | 1015.8 |
| 20260902133503 | 66 | 330 | 8.0 | 13.0 | 0.00 | 0.00 | 0.00 | 81 | 1015.6 |
| 20260902133303 | 66 | 337 | 5.0 | 13.0 | 0.00 | 0.00 | 0.00 | 82 | 1015.5 |
| 20260902133218 | 66 | 333 | 7.0 | 13.0 | 0.00 | 0.00 | 0.00 | 82 | 1015.8 |
| 20260902133203 | 66 | 330 | 7.0 | 13.0 | 0.00 | 0.00 | 0.00 | 82 | 1015.8 |
| 20260902132903 | 66 | 322 | 5.0 | 13.0 | 0.00 | 0.00 | 0.00 | 82 | 1015.6 |
| 20260902132803 | 66 | 323 | 6.0 | 13.0 | 0.00 | 0.00 | 0.00 | 82 | 1015.9 |
| 20260902132703 | 66 | 338 | 5.0 | 13.0 | 0.00 | 0.00 | 0.00 | 83 | 1015.4 |
| 20260902132603 | 66 | 347 | 4.0 | 13.0 | 0.00 | 0.00 | 0.00 | 83 | 1015.8 |
| 20260902132503 | 65 | 1 | 4.0 | 13.0 | 0.00 | 0.00 | 0.00 | 83 | 1015.7 |
| 20260902132403 | 65 | 360 | 4.0 | 9.0 | 0.00 | 0.00 | 0.00 | 83 | 1015.5 |
| 20260902132306 | 65 | 349 | 5.0 | 11.0 | 0.00 | 0.00 | 0.00 | 83 | 1015.6 |
| 20260902132203 | 65 | 350 | 3.0 | 11.0 | 0.00 | 0.00 | 0.00 | 84 | 1015.9 |
| 20260902132103 | 65 | 360 | 4.0 | 11.0 | 0.00 | 0.00 | 0.00 | 84 | 1015.8 |
| 20260902132003 | 65 | 359 | 5.0 | 13.0 | 0.00 | 0.00 | 0.00 | 84 | 1015.5 |
| 20260902131903 | 65 | 357 | 5.0 | 13.0 | 0.00 | 0.00 | 0.00 | 84 | 1015.8 |
| 20260902131803 | 65 | 3 | 7.0 | 13.0 | 0.00 | 0.00 | 0.00 | 84 | 1015.6 |
| 20260902131717 | 64 | 348 | 4.0 | 13.0 | 0.00 | 0.00 | 0.00 | 85 | 1015.7 |
| 20260902131703 | 64 | 340 | 4.0 | 13.0 | 0.00 | 0.00 | 0.00 | 85 | 1015.7 |
| 20260902131618 | 64 | 339 | 6.0 | 14.0 | 0.00 | 0.00 | 0.00 | 85 | 1015.5 |
| 20260902131603 | 64 | 338 | 6.0 | 14.0 | 0.00 | 0.00 | 0.00 | 85 | 1015.5 |
| 20260902131303 | 64 | 346 | 3.0 | 15.0 | 0.00 | 0.00 | 0.00 | 86 | 1015.7 |
| 20260902131203 | 64 | 346 | 5.0 | 16.0 | 0.00 | 0.00 | 0.00 | 86 | 1015.5 |
| 20260902131103 | 63 | 344 | 8.0 | 16.0 | 0.00 | 0.00 | 0.00 | 86 | 1015.7 |
| 20260902131003 | 63 | 340 | 8.0 | 16.0 | 0.00 | 0.00 | 0.00 | 86 | 1015.8 |
| 20260902130903 | 63 | 337 | 8.0 | 16.0 | 0.00 | 0.00 | 0.00 | 86 | 1015.9 |
| 20260902130803 | 63 | 331 | 9.0 | 16.0 | 0.00 | 0.00 | 0.00 | 86 | 1015.6 |
| 20260902130703 | 63 | 341 | 7.0 | 13.0 | 0.00 | 0.00 | 0.00 | 86 | 1015.8 |
| 20260902130603 | 63 | 348 | 6.0 | 13.0 | 0.00 | 0.00 | 0.00 | 86 | 1015.7 |
| 20260902130503 | 63 | 347 | 4.0 | 11.0 | 0.00 | 0.00 | 0.00 | 86 | 1015.8 |
| 20260902130403 | 63 | 340 | 5.0 | 11.0 | 0.00 | 0.00 | 0.00 | 86 | 1015.8 |
| 20260902130303 | 63 | 338 | 5.0 | 11.0 | 0.00 | 0.00 | 0.00 | 86 | 1015.9 |
| 20260902130203 | 63 | 342 | 5.0 | 11.0 | 0.00 | 0.00 | 0.00 | 86 | 1015.8 |
| 20260902130103 | 63 | 348 | 5.0 | 13.0 | 0.00 | 0.00 | 0.00 | 86 | 1015.9 |
| 20260902130004 | 63 | 354 | 5.0 | 13.0 | 0.00 | 0.00 | 0.00 | 86 | 1016.0 |
| 20260902125903 | 63 | 358 | 4.0 | 13.0 | 0.00 | 0.00 | 0.00 | 87 | 1016.1 |
| 20260902125803 | 63 | 6 | 4.0 | 13.0 | 0.00 | 0.00 | 0.00 | 87 | 1015.9 |
| 20260902125703 | 63 | 360 | 4.0 | 13.0 | 0.00 | 0.00 | 0.00 | 87 | 1015.9 |
| 20260902125603 | 63 | 360 | 8.0 | 13.0 | 0.00 | 0.00 | 0.00 | 87 | 1015.9 |
| 20260902125503 | 63 | 353 | 6.0 | 11.0 | 0.00 | 0.00 | 0.00 | 87 | 1016.1 |
| 20260902125403 | 63 | 360 | 5.0 | 11.0 | 0.00 | 0.00 | 0.00 | 87 | 1016.0 |
| 20260902125305 | 63 | 360 | 3.0 | 11.0 | 0.00 | 0.00 | 0.00 | 87 | 1016.2 |
| 20260902125203 | 62 | 360 | 4.0 | 11.0 | 0.00 | 0.00 | 0.00 | 87 | 1016.3 |
| 20260902125103 | 62 | 352 | 8.0 | 11.0 | 0.00 | 0.00 | 0.00 | 87 | 1016.3 |
| 20260902125003 | 62 | 349 | 4.0 | 11.0 | 0.00 | 0.00 | 0.00 | 88 | 1016.4 |
| 20260902124903 | 62 | 348 | 4.0 | 11.0 | 0.00 | 0.00 | 0.00 | 88 | 1016.2 |
| 20260902124807 | 62 | 348 | 6.0 | 11.0 | 0.00 | 0.00 | 0.00 | 88 | 1016.2 |
| 20260902124703 | 62 | 346 | 5.0 | 11.0 | 0.00 | 0.00 | 0.00 | 88 | 1016.1 |
| 20260902124603 | 62 | 346 | 5.0 | 11.0 | 0.00 | 0.00 | 0.00 | 88 | 1016.5 |
| 20260902124503 | 62 | 353 | 5.0 | 9.0 | 0.00 | 0.00 | 0.00 | 88 | 1016.3 |
| 20260902124403 | 62 | 348 | 4.0 | 15.0 | 0.00 | 0.00 | 0.00 | 89 | 1016.2 |
| 20260902124303 | 61 | 348 | 3.0 | 15.0 | 0.00 | 0.00 | 0.00 | 89 | 1016.2 |
| 20260902124203 | 61 | 349 | 6.0 | 15.0 | 0.00 | 0.00 | 0.00 | 89 | 1016.1 |
| 20260902124103 | 61 | 342 | 5.0 | 15.0 | 0.00 | 0.00 | 0.00 | 89 | 1016.4 |
| 20260902124003 | 61 | 344 | 5.0 | 15.0 | 0.00 | 0.00 | 0.00 | 89 | 1016.0 |
| 20260902123903 | 61 | 341 | 4.0 | 11.0 | 0.00 | 0.00 | 0.00 | 89 | 1016.2 |
| 20260902123803 | 61 | 341 | 6.0 | 11.0 | 0.00 | 0.00 | 0.00 | 89 | 1016.5 |
| 20260902123703 | 61 | 343 | 7.0 | 11.0 | 0.00 | 0.00 | 0.00 | 89 | 1016.2 |
| 20260902123603 | 61 | 351 | 3.0 | 11.0 | 0.00 | 0.00 | 0.00 | 90 | 1016.2 |
| 20260902123518 | 61 | 344 | 4.0 | 11.0 | 0.00 | 0.00 | 0.00 | 90 | 1016.4 |
| 20260902123503 | 60 | 344 | 5.0 | 9.0 | 0.00 | 0.00 | 0.00 | 90 | 1016.3 |
| 20260902123403 | 60 | 354 | 5.0 | 9.0 | 0.00 | 0.00 | 0.00 | 90 | 1016.4 |
| 20260902123203 | 60 | 358 | 5.0 | 8.0 | 0.00 | 0.00 | 0.00 | 90 | 1016.5 |
| 20260902123103 | 60 | 6 | 5.0 | 8.0 | 0.00 | 0.00 | 0.00 | 90 | 1016.3 |
| 20260902123017 | 60 | 21 | 4.0 | 7.0 | 0.00 | 0.00 | 0.00 | 90 | 1016.4 |
| 20260902123003 | 60 | 22 | 4.0 | 7.0 | 0.00 | 0.00 | 0.00 | 90 | 1016.4 |
| 20260902122903 | 60 | 17 | 4.0 | 9.0 | 0.00 | 0.00 | 0.00 | 90 | 1016.3 |
| 20260902122717 | 60 | 10 | 3.0 | 11.0 | 0.00 | 0.00 | 0.00 | 91 | 1016.5 |
| 20260902122703 | 60 | 9 | 3.0 | 11.0 | 0.00 | 0.00 | 0.00 | 91 | 1016.5 |
| 20260902122603 | 60 | 6 | 2.0 | 11.0 | 0.00 | 0.00 | 0.00 | 91 | 1016.4 |
| 20260902122518 | 60 | 5 | 4.0 | 11.0 | 0.00 | 0.00 | 0.00 | 91 | 1016.3 |
| 20260902122403 | 59 | 7 | 5.0 | 11.0 | 0.00 | 0.00 | 0.00 | 91 | 1016.5 |
| 20260902122203 | 59 | 1 | 4.0 | 11.0 | 0.00 | 0.00 | 0.00 | 91 | 1016.5 |
| 20260902122103 | 59 | 348 | 4.0 | 11.0 | 0.00 | 0.00 | 0.00 | 91 | 1016.2 |
| 20260902122003 | 59 | 346 | 3.0 | 11.0 | 0.00 | 0.00 | 0.00 | 91 | 1016.3 |
| 20260902121903 | 59 | 346 | 2.0 | 11.0 | 0.00 | 0.00 | 0.00 | 92 | 1016.3 |
| 20260902121803 | 59 | 344 | 3.0 | 11.0 | 0.00 | 0.00 | 0.00 | 92 | 1016.5 |
| 20260902121703 | 59 | 341 | 8.0 | 14.0 | 0.00 | 0.00 | 0.00 | 92 | 1016.3 |
| 20260902121603 | 59 | 341 | 7.0 | 14.0 | 0.00 | 0.00 | 0.00 | 92 | 1016.6 |
| 20260902121518 | 59 | 339 | 4.0 | 14.0 | 0.00 | 0.00 | 0.00 | 92 | 1016.5 |
| 20260902121503 | 58 | 338 | 6.0 | 14.0 | 0.00 | 0.00 | 0.00 | 92 | 1016.6 |
| 20260902121418 | 58 | 335 | 4.0 | 14.0 | 0.00 | 0.00 | 0.00 | 92 | 1016.9 |
| 20260902121403 | 58 | 337 | 4.0 | 14.0 | 0.00 | 0.00 | 0.00 | 92 | 1016.9 |
| 20260902121103 | 58 | 355 | 2.0 | 13.0 | 0.00 | 0.00 | 0.00 | 92 | 1016.4 |
| 20260902121003 | 58 | 2 | 3.0 | 13.0 | 0.00 | 0.00 | 0.00 | 92 | 1016.5 |
| 20260902120903 | 58 | 4 | 3.0 | 13.0 | 0.00 | 0.00 | 0.00 | 92 | 1016.5 |
| 20260902120803 | 58 | 10 | 5.0 | 13.0 | 0.00 | 0.00 | 0.00 | 92 | 1016.6 |
| 20260902120703 | 58 | 15 | 5.0 | 13.0 | 0.00 | 0.00 | 0.00 | 92 | 1016.7 |
| 20260902120603 | 58 | 9 | 6.0 | 13.0 | 0.00 | 0.00 | 0.00 | 92 | 1016.4 |
| 20260902120503 | 58 | 6 | 3.0 | 9.0 | 0.00 | 0.00 | 0.00 | 93 | 1016.7 |
| 20260902120403 | 58 | 1 | 4.0 | 9.0 | 0.00 | 0.00 | 0.00 | 93 | 1016.4 |
| 20260902120217 | 58 | 345 | 4.0 | 9.0 | 0.00 | 0.00 | 0.00 | 93 | 1016.6 |
| 20260902120203 | 58 | 342 | 4.0 | 9.0 | 0.00 | 0.00 | 0.00 | 93 | 1016.6 |
| 20260902115903 | 58 | 331 | 3.0 | 11.0 | 0.00 | 0.00 | 0.00 | 93 | 1016.9 |
| 20260902115812 | 57 | 329 | 3.0 | 11.0 | 0.00 | 0.00 | 0.00 | 93 | 1016.9 |
| 20260902115716 | 57 | 331 | 4.0 | 11.0 | 0.00 | 0.00 | 0.00 | 93 | 1016.8 |
| 20260902115703 | 57 | 334 | 4.0 | 11.0 | 0.00 | 0.00 | 0.00 | 93 | 1016.8 |
| 20260902115617 | 57 | 343 | 5.0 | 11.0 | 0.00 | 0.00 | 0.00 | 93 | 1016.6 |
| 20260902115603 | 57 | 349 | 5.0 | 11.0 | 0.00 | 0.00 | 0.00 | 93 | 1016.6 |
| 20260902115518 | 57 | 357 | 3.0 | 8.0 | 0.00 | 0.00 | 0.00 | 93 | 1016.9 |
| 20260902115203 | 57 | 9 | 3.0 | 7.0 | 0.00 | 0.00 | 0.00 | 93 | 1016.6 |
| 20260902115103 | 57 | 3 | 3.0 | 9.0 | 0.00 | 0.00 | 0.00 | 93 | 1016.9 |
| 20260902115003 | 57 | 1 | 3.0 | 9.0 | 0.00 | 0.00 | 0.00 | 93 | 1016.9 |
| 20260902114903 | 57 | 2 | 2.0 | 9.0 | 0.00 | 0.00 | 0.00 | 93 | 1016.6 |
| 20260902114803 | 57 | 358 | 2.0 | 9.0 | 0.00 | 0.00 | 0.00 | 93 | 1016.9 |
| 20260902114703 | 57 | 353 | 5.0 | 9.0 | 0.00 | 0.00 | 0.00 | 94 | 1016.9 |
| 20260902114603 | 57 | 353 | 2.0 | 7.0 | 0.00 | 0.00 | 0.00 | 94 | 1016.7 |
| 20260902114503 | 57 | 351 | 2.0 | 7.0 | 0.00 | 0.00 | 0.00 | 94 | 1016.9 |
| 20260902114403 | 57 | 353 | 2.0 | 7.0 | 0.00 | 0.00 | 0.00 | 94 | 1017.0 |
| 20260902114317 | 57 | 356 | 3.0 | 7.0 | 0.00 | 0.00 | 0.00 | 94 | 1016.8 |
| 20260902114303 | 57 | 357 | 4.0 | 8.0 | 0.00 | 0.00 | 0.00 | 94 | 1016.9 |
| 20260902114203 | 57 | 357 | 4.0 | 8.0 | 0.00 | 0.00 | 0.00 | 94 | 1016.8 |
| 20260902114003 | 57 | 352 | 3.0 | 8.0 | 0.00 | 0.00 | 0.00 | 94 | 1016.8 |
| 20260902113903 | 57 | 357 | 2.0 | 9.0 | 0.00 | 0.00 | 0.00 | 94 | 1016.8 |
| 20260902113803 | 57 | 360 | 4.0 | 9.0 | 0.00 | 0.00 | 0.00 | 94 | 1016.7 |
| 20260902113703 | 56 | 17 | 4.0 | 9.0 | 0.00 | 0.00 | 0.00 | 94 | 1016.7 |
| 20260902113603 | 56 | 29 | 4.0 | 9.0 | 0.00 | 0.00 | 0.00 | 94 | 1016.6 |
| 20260902113503 | 56 | 37 | 6.0 | 9.0 | 0.00 | 0.00 | 0.00 | 94 | 1016.4 |
| 20260902113403 | 56 | 43 | 4.0 | 9.0 | 0.00 | 0.00 | 0.00 | 94 | 1016.6 |
| 20260902113303 | 56 | 46 | 5.0 | 9.0 | 0.00 | 0.00 | 0.00 | 94 | 1016.5 |
| 20260902113203 | 56 | 38 | 4.0 | 9.0 | 0.00 | 0.00 | 0.00 | 94 | 1016.6 |
| 20260902113118 | 57 | 23 | 2.0 | 7.0 | 0.00 | 0.00 | 0.00 | 94 | 1016.6 |
| 20260902113103 | 57 | 17 | 1.0 | 7.0 | 0.00 | 0.00 | 0.00 | 94 | 1016.5 |
| 20260902113003 | 56 | 9 | 4.0 | 7.0 | 0.00 | 0.00 | 0.00 | 94 | 1016.5 |
| 20260902112917 | 56 | 360 | 2.0 | 9.0 | 0.00 | 0.00 | 0.00 | 94 | 1016.9 |
| 20260902112818 | 56 | 349 | 2.0 | 9.0 | 0.00 | 0.00 | 0.00 | 94 | 1016.6 |
| 20260902112803 | 56 | 348 | 2.0 | 9.0 | 0.00 | 0.00 | 0.00 | 94 | 1016.6 |
| 20260902112503 | 56 | 354 | 2.0 | 9.0 | 0.00 | 0.00 | 0.00 | 94 | 1016.6 |
| 20260902112403 | 56 | 360 | 4.0 | 9.0 | 0.00 | 0.00 | 0.00 | 94 | 1016.7 |
| 20260902112316 | 56 | 1 | 4.0 | 8.0 | 0.00 | 0.00 | 0.00 | 94 | 1016.6 |
| 20260902112305 | 56 | 3 | 3.0 | 8.0 | 0.00 | 0.00 | 0.00 | 94 | 1016.7 |
| 20260902112217 | 56 | 5 | 4.0 | 8.0 | 0.00 | 0.00 | 0.00 | 94 | 1016.6 |
| 20260902112203 | 56 | 7 | 4.0 | 8.0 | 0.00 | 0.00 | 0.00 | 94 | 1016.6 |
| 20260902111903 | 56 | 4 | 5.0 | 9.0 | 0.00 | 0.00 | 0.00 | 94 | 1016.5 |
| 20260902111803 | 56 | 7 | 2.0 | 9.0 | 0.00 | 0.00 | 0.00 | 94 | 1016.6 |
| 20260902111703 | 56 | 355 | 4.0 | 9.0 | 0.00 | 0.00 | 0.00 | 94 | 1016.5 |
| 20260902111603 | 56 | 339 | 4.0 | 9.0 | 0.00 | 0.00 | 0.00 | 94 | 1016.6 |
| 20260902111503 | 56 | 341 | 4.0 | 8.0 | 0.00 | 0.00 | 0.00 | 95 | 1016.6 |
| 20260902111403 | 56 | 338 | 4.0 | 8.0 | 0.00 | 0.00 | 0.00 | 95 | 1016.7 |
| 20260902111317 | 56 | 338 | 5.0 | 8.0 | 0.00 | 0.00 | 0.00 | 95 | 1016.5 |
| 20260902111303 | 56 | 340 | 5.0 | 8.0 | 0.00 | 0.00 | 0.00 | 95 | 1016.5 |
| 20260902111003 | 56 | 13 | 3.0 | 7.0 | 0.00 | 0.00 | 0.00 | 95 | 1016.5 |
| 20260902110903 | 56 | 2 | 2.0 | 8.0 | 0.00 | 0.00 | 0.00 | 95 | 1016.7 |
| 20260902110803 | 56 | 353 | 4.0 | 8.0 | 0.00 | 0.00 | 0.00 | 95 | 1016.5 |
| 20260902110703 | 56 | 348 | 4.0 | 8.0 | 0.00 | 0.00 | 0.00 | 95 | 1016.7 |
| 20260902110603 | 56 | 358 | 2.0 | 8.0 | 0.00 | 0.00 | 0.00 | 95 | 1016.5 |
| 20260902110503 | 56 | 353 | 2.0 | 8.0 | 0.00 | 0.00 | 0.00 | 95 | 1016.6 |
| 20260902110303 | 56 | 15 | 3.0 | 8.0 | 0.00 | 0.00 | 0.00 | 95 | 1016.6 |
| 20260902110217 | 56 | 21 | 3.0 | 8.0 | 0.00 | 0.00 | 0.00 | 95 | 1016.6 |
| 20260902110203 | 56 | 17 | 3.0 | 8.0 | 0.00 | 0.00 | 0.00 | 95 | 1016.6 |
| 20260902105917 | 56 | 7 | 3.0 | 7.0 | 0.00 | 0.00 | 0.00 | 95 | 1016.9 |
| 20260902105903 | 56 | 4 | 2.0 | 7.0 | 0.00 | 0.00 | 0.00 | 95 | 1016.8 |
| 20260902105803 | 56 | 5 | 2.0 | 7.0 | 0.00 | 0.00 | 0.00 | 95 | 1016.7 |
| 20260902105503 | 56 | 355 | 2.0 | 7.0 | 0.00 | 0.00 | 0.00 | 95 | 1016.6 |
| 20260902105404 | 56 | 8 | 4.0 | 7.0 | 0.00 | 0.00 | 0.00 | 95 | 1016.8 |
| 20260902105306 | 56 | 7 | 3.0 | 7.0 | 0.00 | 0.00 | 0.00 | 95 | 1016.8 |
| 20260902105203 | 56 | 12 | 4.0 | 7.0 | 0.00 | 0.00 | 0.00 | 95 | 1016.8 |
| 20260902105103 | 56 | 11 | 2.0 | 7.0 | 0.00 | 0.00 | 0.00 | 95 | 1016.8 |
| 20260902105003 | 56 | 19 | 2.0 | 7.0 | 0.00 | 0.00 | 0.00 | 95 | 1016.8 |
| 20260902104903 | 56 | 23 | 2.0 | 7.0 | 0.00 | 0.00 | 0.00 | 95 | 1016.8 |
| 20260902104803 | 56 | 27 | 3.0 | 7.0 | 0.00 | 0.00 | 0.00 | 95 | 1016.7 |
| 20260902104703 | 56 | 25 | 2.0 | 7.0 | 0.00 | 0.00 | 0.00 | 95 | 1016.8 |
| 20260902104603 | 56 | 26 | 2.0 | 7.0 | 0.00 | 0.00 | 0.00 | 95 | 1016.8 |
| 20260902104503 | 56 | 24 | 2.0 | 7.0 | 0.00 | 0.00 | 0.00 | 95 | 1016.6 |
| 20260902104403 | 55 | 18 | 2.0 | 7.0 | 0.00 | 0.00 | 0.00 | 95 | 1016.8 |
| 20260902104303 | 56 | 17 | 1.0 | 4.0 | 0.00 | 0.00 | 0.00 | 95 | 1016.7 |
| 20260902104203 | 56 | 20 | 1.0 | 4.0 | 0.00 | 0.00 | 0.00 | 95 | 1016.5 |
| 20260902104103 | 55 | 29 | 2.0 | 4.0 | 0.00 | 0.00 | 0.00 | 95 | 1016.7 |
| 20260902104003 | 55 | 34 | 1.0 | 7.0 | 0.00 | 0.00 | 0.00 | 95 | 1016.8 |
| 20260902103903 | 55 | 36 | 2.0 | 7.0 | 0.00 | 0.00 | 0.00 | 95 | 1016.6 |
| 20260902103817 | 55 | 32 | 2.0 | 7.0 | 0.00 | 0.00 | 0.00 | 95 | 1016.4 |
| 20260902103803 | 55 | 30 | 2.0 | 7.0 | 0.00 | 0.00 | 0.00 | 95 | 1016.4 |
| 20260902103703 | 55 | 37 | 2.0 | 7.0 | 0.00 | 0.00 | 0.00 | 95 | 1016.5 |
| 20260902103503 | 56 | 25 | 1.0 | 6.0 | 0.00 | 0.00 | 0.00 | 95 | 1016.9 |
| 20260902103403 | 55 | 24 | 3.0 | 6.0 | 0.00 | 0.00 | 0.00 | 95 | 1016.9 |
| 20260902103303 | 56 | 34 | 2.0 | 4.0 | 0.00 | 0.00 | 0.00 | 95 | 1016.8 |
| 20260902103203 | 55 | 35 | 2.0 | 4.0 | 0.00 | 0.00 | 0.00 | 95 | 1016.7 |
| 20260902103103 | 56 | 27 | 3.0 | 7.0 | 0.00 | 0.00 | 0.00 | 95 | 1017.0 |
| 20260902103003 | 56 | 20 | 1.0 | 7.0 | 0.00 | 0.00 | 0.00 | 95 | 1016.7 |
| 20260902102903 | 56 | 14 | 1.0 | 7.0 | 0.00 | 0.00 | 0.00 | 95 | 1017.0 |
| 20260902102803 | 56 | 11 | 1.0 | 7.0 | 0.00 | 0.00 | 0.00 | 95 | 1016.8 |
| 20260902102703 | 56 | 5 | 1.0 | 7.0 | 0.00 | 0.00 | 0.00 | 95 | 1016.8 |
| 20260902102603 | 56 | 14 | 3.0 | 7.0 | 0.00 | 0.00 | 0.00 | 95 | 1016.7 |
| 20260902102503 | 56 | 10 | 2.0 | 6.0 | 0.00 | 0.00 | 0.00 | 95 | 1016.8 |
| 20260902102403 | 56 | 6 | 0.0 | 6.0 | 0.00 | 0.00 | 0.00 | 95 | 1016.6 |
| 20260902102307 | 56 | 3 | 2.0 | 7.0 | 0.00 | 0.00 | 0.00 | 95 | 1016.8 |
| 20260902102217 | 56 | 359 | 4.0 | 9.0 | 0.00 | 0.00 | 0.00 | 95 | 1016.8 |
| 20260902102203 | 56 | 358 | 4.0 | 9.0 | 0.00 | 0.00 | 0.00 | 95 | 1016.8 |
| 20260902102103 | 56 | 351 | 4.0 | 9.0 | 0.00 | 0.00 | 0.00 | 95 | 1016.7 |
| 20260902101903 | 56 | 5 | 3.0 | 9.0 | 0.00 | 0.00 | 0.00 | 95 | 1016.8 |
| 20260902101803 | 56 | 10 | 4.0 | 9.0 | 0.00 | 0.00 | 0.00 | 96 | 1016.8 |
| 20260902101703 | 56 | 18 | 6.0 | 9.0 | 0.00 | 0.00 | 0.00 | 96 | 1016.8 |
| 20260902101603 | 56 | 18 | 2.0 | 7.0 | 0.00 | 0.00 | 0.00 | 96 | 1016.6 |
| 20260902101503 | 56 | 6 | 3.0 | 11.0 | 0.00 | 0.00 | 0.00 | 96 | 1016.6 |
| 20260902101403 | 56 | 354 | 3.0 | 11.0 | 0.00 | 0.00 | 0.00 | 96 | 1016.7 |
| 20260902101318 | 56 | 351 | 2.0 | 11.0 | 0.00 | 0.00 | 0.00 | 96 | 1016.8 |
| 20260902101303 | 56 | 349 | 2.0 | 11.0 | 0.00 | 0.00 | 0.00 | 96 | 1016.8 |
| 20260902101203 | 56 | 347 | 4.0 | 11.0 | 0.00 | 0.00 | 0.00 | 96 | 1016.6 |
| 20260902101003 | 56 | 345 | 6.0 | 11.0 | 0.00 | 0.00 | 0.00 | 96 | 1016.7 |
| 20260902100903 | 55 | 358 | 4.0 | 8.0 | 0.00 | 0.00 | 0.00 | 96 | 1016.5 |
| 20260902100803 | 56 | 2 | 2.0 | 7.0 | 0.00 | 0.00 | 0.00 | 96 | 1016.7 |
| 20260902100703 | 56 | 6 | 2.0 | 4.0 | 0.00 | 0.00 | 0.00 | 96 | 1016.5 |
| 20260902100503 | 55 | 356 | 2.0 | 7.0 | 0.00 | 0.00 | 0.00 | 96 | 1016.6 |
| 20260902100403 | 56 | 351 | 2.0 | 7.0 | 0.00 | 0.00 | 0.00 | 96 | 1016.6 |
| 20260902100303 | 56 | 347 | 1.0 | 7.0 | 0.00 | 0.00 | 0.00 | 96 | 1016.6 |
| 20260902100203 | 56 | 357 | 1.0 | 8.0 | 0.00 | 0.00 | 0.00 | 96 | 1016.6 |
| 20260902100006 | 56 | 13 | 2.0 | 8.0 | 0.00 | 0.00 | 0.00 | 96 | 1016.6 |
| 20260902095903 | 56 | 13 | 2.0 | 8.0 | 0.00 | 0.00 | 0.00 | 96 | 1016.5 |
| 20260902095803 | 56 | 12 | 2.0 | 8.0 | 0.00 | 0.00 | 0.00 | 96 | 1016.6 |
| 20260902095703 | 56 | 12 | 4.0 | 8.0 | 0.00 | 0.00 | 0.00 | 96 | 1016.6 |
| 20260902095603 | 56 | 10 | 2.0 | 7.0 | 0.00 | 0.00 | 0.00 | 96 | 1016.4 |
| 20260902095503 | 56 | 13 | 3.0 | 7.0 | 0.00 | 0.00 | 0.00 | 96 | 1016.7 |
| 20260902095417 | 56 | 16 | 4.0 | 7.0 | 0.00 | 0.00 | 0.00 | 96 | 1016.6 |
| 20260902095403 | 56 | 17 | 4.0 | 7.0 | 0.00 | 0.00 | 0.00 | 96 | 1016.6 |
| 20260902095306 | 56 | 19 | 4.0 | 7.0 | 0.00 | 0.00 | 0.00 | 96 | 1016.7 |
| 20260902095103 | 55 | 10 | 2.0 | 4.0 | 0.00 | 0.00 | 0.00 | 96 | 1016.5 |
| 20260902095003 | 55 | 358 | 1.0 | 6.0 | 0.00 | 0.00 | 0.00 | 96 | 1016.5 |
| 20260902094917 | 55 | 359 | 2.0 | 6.0 | 0.00 | 0.00 | 0.00 | 96 | 1016.6 |
| 20260902094903 | 55 | 360 | 2.0 | 6.0 | 0.00 | 0.00 | 0.00 | 96 | 1016.6 |
| 20260902094803 | 55 | 360 | 2.0 | 6.0 | 0.00 | 0.00 | 0.00 | 96 | 1016.8 |
| 20260902094603 | 55 | 14 | 2.0 | 6.0 | 0.00 | 0.00 | 0.00 | 96 | 1016.6 |
| 20260902094503 | 56 | 30 | 3.0 | 6.0 | 0.00 | 0.00 | 0.00 | 96 | 1016.8 |
| 20260902094417 | 56 | 37 | 2.0 | 6.0 | 0.00 | 0.00 | 0.00 | 96 | 1016.5 |
| 20260902094403 | 56 | 39 | 2.0 | 6.0 | 0.00 | 0.00 | 0.00 | 96 | 1016.5 |
| 20260902094303 | 56 | 35 | 2.0 | 6.0 | 0.00 | 0.00 | 0.00 | 96 | 1016.9 |
| 20260902094103 | 56 | 37 | 3.0 | 6.0 | 0.00 | 0.00 | 0.00 | 96 | 1016.5 |
| 20260902094003 | 56 | 31 | 4.0 | 6.0 | 0.00 | 0.00 | 0.00 | 96 | 1016.4 |
| 20260902093916 | 56 | 21 | 2.0 | 4.0 | 0.00 | 0.00 | 0.00 | 96 | 1016.7 |
| 20260902093903 | 56 | 16 | 2.0 | 4.0 | 0.00 | 0.00 | 0.00 | 96 | 1016.6 |
| 20260902093803 | 56 | 20 | 2.0 | 4.0 | 0.00 | 0.00 | 0.00 | 96 | 1016.8 |
| 20260902093603 | 56 | 14 | 2.0 | 6.0 | 0.00 | 0.00 | 0.00 | 96 | 1016.5 |
| 20260902093503 | 56 | 13 | 1.0 | 6.0 | 0.00 | 0.00 | 0.00 | 96 | 1016.7 |
| 20260902093403 | 56 | 16 | 2.0 | 6.0 | 0.00 | 0.00 | 0.00 | 96 | 1016.7 |
| 20260902093303 | 56 | 16 | 2.0 | 6.0 | 0.00 | 0.00 | 0.00 | 96 | 1016.7 |
| 20260902093203 | 56 | 15 | 2.0 | 6.0 | 0.00 | 0.00 | 0.00 | 96 | 1016.7 |
| 20260902093103 | 56 | 9 | 1.0 | 4.0 | 0.00 | 0.00 | 0.00 | 96 | 1016.8 |
| 20260902093003 | 56 | 16 | 1.0 | 2.0 | 0.00 | 0.00 | 0.00 | 96 | 1016.9 |
| 20260902092903 | 56 | 14 | 1.0 | 2.0 | 0.00 | 0.00 | 0.00 | 96 | 1016.8 |
| 20260902092803 | 56 | 15 | 1.0 | 2.0 | 0.00 | 0.00 | 0.00 | 96 | 1016.8 |
| 20260902092703 | 56 | 22 | 1.0 | 2.0 | 0.00 | 0.00 | 0.00 | 96 | 1016.8 |
| 20260902092618 | 56 | 33 | 0.0 | 2.0 | 0.00 | 0.00 | 0.00 | 96 | 1016.9 |
| 20260902092603 | 56 | 34 | 0.0 | 2.0 | 0.00 | 0.00 | 0.00 | 96 | 1016.9 |
| 20260902092503 | 56 | 35 | 1.0 | 2.0 | 0.00 | 0.00 | 0.00 | 96 | 1016.8 |
| 20260902092305 | 56 | 35 | 0.0 | 4.0 | 0.00 | 0.00 | 0.00 | 96 | 1016.8 |
| 20260902092203 | 56 | 29 | 0.0 | 4.0 | 0.00 | 0.00 | 0.00 | 96 | 1016.9 |
| 20260902092103 | 56 | 28 | 0.0 | 4.0 | 0.00 | 0.00 | 0.00 | 96 | 1016.8 |
| 20260902092003 | 56 | 29 | 1.0 | 4.0 | 0.00 | 0.00 | 0.00 | 96 | 1016.8 |
| 20260902091903 | 56 | 20 | 1.0 | 4.0 | 0.00 | 0.00 | 0.00 | 96 | 1016.9 |
| 20260902091718 | 56 | 11 | 2.0 | 4.0 | 0.00 | 0.00 | 0.00 | 96 | 1016.9 |
| 20260902091703 | 56 | 8 | 2.0 | 4.0 | 0.00 | 0.00 | 0.00 | 96 | 1016.9 |
| 20260902091618 | 56 | 4 | 1.0 | 4.0 | 0.00 | 0.00 | 0.00 | 96 | 1016.9 |
| 20260902091603 | 56 | 2 | 1.0 | 4.0 | 0.00 | 0.00 | 0.00 | 96 | 1016.9 |
| 20260902091303 | 56 | 7 | 2.0 | 4.0 | 0.00 | 0.00 | 0.00 | 96 | 1017.1 |
| 20260902091203 | 56 | 11 | 2.0 | 4.0 | 0.00 | 0.00 | 0.00 | 96 | 1016.8 |
| 20260902091117 | 56 | 14 | 2.0 | 4.0 | 0.00 | 0.00 | 0.00 | 96 | 1016.8 |
| 20260902091103 | 56 | 13 | 1.0 | 4.0 | 0.00 | 0.00 | 0.00 | 96 | 1016.9 |
| 20260902091003 | 56 | 7 | 2.0 | 4.0 | 0.00 | 0.00 | 0.00 | 96 | 1017.0 |
| 20260902090817 | 56 | 357 | 2.0 | 4.0 | 0.00 | 0.00 | 0.00 | 96 | 1016.6 |
| 20260902090803 | 56 | 354 | 2.0 | 4.0 | 0.00 | 0.00 | 0.00 | 96 | 1016.6 |
| 20260902090703 | 56 | 354 | 1.0 | 4.0 | 0.00 | 0.00 | 0.00 | 96 | 1016.9 |
| 20260902090503 | 56 | 357 | 2.0 | 4.0 | 0.00 | 0.00 | 0.00 | 96 | 1016.9 |
| 20260902090417 | 56 | 7 | 2.0 | 4.0 | 0.00 | 0.00 | 0.00 | 96 | 1017.0 |
| 20260902090403 | 56 | 11 | 2.0 | 4.0 | 0.00 | 0.00 | 0.00 | 96 | 1017.0 |
| 20260902090303 | 56 | 360 | 1.0 | 4.0 | 0.00 | 0.00 | 0.00 | 96 | 1016.6 |
| 20260902090004 | 56 | 20 | 0.0 | 4.0 | 0.00 | 0.00 | 0.00 | 96 | 1016.9 |
| 20260902085903 | 56 | 18 | 2.0 | 4.0 | 0.00 | 0.00 | 0.00 | 96 | 1016.9 |
| 20260902085703 | 56 | 33 | 2.0 | 4.0 | 0.00 | 0.00 | 0.00 | 96 | 1017.0 |
| 20260902085603 | 56 | 29 | 1.0 | 4.0 | 0.00 | 0.00 | 0.00 | 96 | 1016.9 |
| 20260902085503 | 56 | 25 | 1.0 | 6.0 | 0.00 | 0.00 | 0.00 | 96 | 1016.8 |
| 20260902085306 | 56 | 10 | 0.0 | 6.0 | 0.00 | 0.00 | 0.00 | 96 | 1016.8 |
| 20260902085203 | 56 | 4 | 1.0 | 6.0 | 0.00 | 0.00 | 0.00 | 96 | 1017.0 |
| 20260902085103 | 56 | 1 | 3.0 | 6.0 | 0.00 | 0.00 | 0.00 | 96 | 1016.8 |
| 20260902085003 | 56 | 359 | 1.0 | 4.0 | 0.00 | 0.00 | 0.00 | 96 | 1016.7 |
| 20260902084903 | 56 | 357 | 3.0 | 4.0 | 0.00 | 0.00 | 0.00 | 96 | 1016.6 |
| 20260902084803 | 56 | 359 | 2.0 | 6.0 | 0.00 | 0.00 | 0.00 | 96 | 1017.0 |
| 20260902084703 | 56 | 6 | 0.0 | 6.0 | 0.00 | 0.00 | 0.00 | 96 | 1016.8 |
| 20260902084603 | 56 | 3 | 2.0 | 6.0 | 0.00 | 0.00 | 0.00 | 96 | 1016.9 |
| 20260902084503 | 56 | 359 | 2.0 | 6.0 | 0.00 | 0.00 | 0.00 | 96 | 1017.0 |
| 20260902084403 | 56 | 1 | 2.0 | 7.0 | 0.00 | 0.00 | 0.00 | 96 | 1016.9 |
| 20260902084318 | 56 | 357 | 3.0 | 7.0 | 0.00 | 0.00 | 0.00 | 96 | 1016.8 |
| 20260902084303 | 56 | 358 | 1.0 | 7.0 | 0.00 | 0.00 | 0.00 | 96 | 1016.8 |
| 20260902084203 | 56 | 357 | 2.0 | 7.0 | 0.00 | 0.00 | 0.00 | 96 | 1016.8 |
| 20260902084003 | 56 | 351 | 3.0 | 7.0 | 0.00 | 0.00 | 0.00 | 96 | 1017.0 |
| 20260902083903 | 56 | 347 | 2.0 | 7.0 | 0.00 | 0.00 | 0.00 | 96 | 1017.1 |
| 20260902083803 | 56 | 350 | 2.0 | 6.0 | 0.00 | 0.00 | 0.00 | 96 | 1016.9 |
| 20260902083703 | 56 | 349 | 2.0 | 4.0 | 0.00 | 0.00 | 0.00 | 96 | 1016.8 |
| 20260902083603 | 56 | 353 | 2.0 | 4.0 | 0.00 | 0.00 | 0.00 | 96 | 1016.8 |
| 20260902083503 | 56 | 353 | 2.0 | 4.0 | 0.00 | 0.00 | 0.00 | 96 | 1016.9 |
| 20260902083403 | 56 | 355 | 2.0 | 4.0 | 0.00 | 0.00 | 0.00 | 97 | 1017.0 |
| 20260902083303 | 56 | 350 | 3.0 | 4.0 | 0.00 | 0.00 | 0.00 | 97 | 1016.9 |
| 20260902083103 | 56 | 340 | 3.0 | 8.0 | 0.00 | 0.00 | 0.00 | 97 | 1017.0 |
| 20260902083003 | 56 | 342 | 2.0 | 8.0 | 0.00 | 0.00 | 0.00 | 97 | 1016.8 |
| 20260902082903 | 56 | 346 | 2.0 | 8.0 | 0.00 | 0.00 | 0.00 | 97 | 1016.9 |
| 20260902082803 | 56 | 345 | 3.0 | 8.0 | 0.00 | 0.00 | 0.00 | 97 | 1016.8 |
| 20260902082703 | 56 | 354 | 4.0 | 8.0 | 0.00 | 0.00 | 0.00 | 97 | 1017.0 |
| 20260902082503 | 56 | 352 | 2.0 | 7.0 | 0.00 | 0.00 | 0.00 | 97 | 1016.9 |
| 20260902082403 | 56 | 347 | 1.0 | 7.0 | 0.00 | 0.00 | 0.00 | 97 | 1016.9 |
| 20260902082308 | 56 | 346 | 4.0 | 7.0 | 0.00 | 0.00 | 0.00 | 97 | 1016.7 |
| 20260902082203 | 56 | 337 | 3.0 | 7.0 | 0.00 | 0.00 | 0.00 | 97 | 1017.1 |
| 20260902082103 | 56 | 337 | 2.0 | 7.0 | 0.00 | 0.00 | 0.00 | 97 | 1016.7 |
| 20260902082003 | 56 | 350 | 4.0 | 7.0 | 0.00 | 0.00 | 0.00 | 97 | 1016.7 |
| 20260902081903 | 56 | 357 | 2.0 | 6.0 | 0.00 | 0.00 | 0.00 | 97 | 1016.7 |
| 20260902081816 | 56 | 360 | 2.0 | 6.0 | 0.00 | 0.00 | 0.00 | 97 | 1016.9 |
| 20260902081803 | 56 | 1 | 2.0 | 6.0 | 0.00 | 0.00 | 0.00 | 97 | 1016.9 |
| 20260902081703 | 56 | 4 | 2.0 | 8.0 | 0.00 | 0.00 | 0.00 | 97 | 1016.8 |
| 20260902081618 | 56 | 5 | 2.0 | 8.0 | 0.00 | 0.00 | 0.00 | 97 | 1016.7 |
| 20260902081503 | 56 | 5 | 3.0 | 8.0 | 0.00 | 0.00 | 0.00 | 97 | 1016.5 |
| 20260902081303 | 56 | 359 | 2.0 | 8.0 | 0.00 | 0.00 | 0.00 | 97 | 1016.7 |
| 20260902081203 | 56 | 359 | 4.0 | 8.0 | 0.00 | 0.00 | 0.00 | 97 | 1017.0 |
| 20260902081110 | 56 | 357 | 2.0 | 6.0 | 0.00 | 0.00 | 0.00 | 97 | 1016.8 |
| 20260902081003 | 56 | 346 | 1.0 | 6.0 | 0.00 | 0.00 | 0.00 | 97 | 1016.6 |
| 20260902080918 | 56 | 348 | 1.0 | 6.0 | 0.00 | 0.00 | 0.00 | 97 | 1016.8 |
| 20260902080903 | 56 | 350 | 1.0 | 6.0 | 0.00 | 0.00 | 0.00 | 97 | 1016.8 |
| 20260902080803 | 56 | 354 | 2.0 | 6.0 | 0.00 | 0.00 | 0.00 | 97 | 1016.8 |
| 20260902080618 | 56 | 12 | 2.0 | 7.0 | 0.00 | 0.00 | 0.00 | 97 | 1017.0 |
| 20260902080603 | 56 | 14 | 2.0 | 7.0 | 0.00 | 0.00 | 0.00 | 97 | 1017.0 |
| 20260902080503 | 56 | 25 | 2.0 | 7.0 | 0.00 | 0.00 | 0.00 | 97 | 1016.8 |
| 20260902080303 | 56 | 28 | 4.0 | 7.0 | 0.00 | 0.00 | 0.00 | 97 | 1016.7 |
| 20260902080203 | 56 | 22 | 4.0 | 7.0 | 0.00 | 0.00 | 0.00 | 97 | 1016.6 |
| 20260902080117 | 56 | 10 | 4.0 | 7.0 | 0.00 | 0.00 | 0.00 | 97 | 1016.7 |
| 20260902080003 | 56 | 1 | 2.0 | 7.0 | 0.00 | 0.00 | 0.00 | 97 | 1016.6 |
| 20260902075803 | 56 | 355 | 2.0 | 7.0 | 0.00 | 0.00 | 0.00 | 97 | 1016.6 |
| 20260902075703 | 56 | 355 | 2.0 | 7.0 | 0.00 | 0.00 | 0.00 | 97 | 1016.6 |
| 20260902075603 | 57 | 354 | 4.0 | 7.0 | 0.00 | 0.00 | 0.00 | 97 | 1016.8 |
| 20260902075403 | 56 | 358 | 2.0 | 7.0 | 0.00 | 0.00 | 0.00 | 97 | 1016.9 |
| 20260902075317 | 56 | 356 | 2.0 | 7.0 | 0.00 | 0.00 | 0.00 | 97 | 1016.7 |
| 20260902075306 | 56 | 355 | 2.0 | 7.0 | 0.00 | 0.00 | 0.00 | 97 | 1016.7 |
| 20260902075203 | 56 | 2 | 2.0 | 7.0 | 0.00 | 0.00 | 0.00 | 97 | 1016.7 |
| 20260902075003 | 56 | 21 | 2.0 | 4.0 | 0.00 | 0.00 | 0.00 | 97 | 1016.9 |
| 20260902074903 | 56 | 7 | 2.0 | 6.0 | 0.00 | 0.00 | 0.00 | 97 | 1016.9 |
| 20260902074803 | 56 | 10 | 2.0 | 6.0 | 0.00 | 0.00 | 0.00 | 97 | 1016.8 |
| 20260902074703 | 56 | 1 | 2.0 | 6.0 | 0.00 | 0.00 | 0.00 | 97 | 1016.6 |
| 20260902074603 | 56 | 4 | 2.0 | 6.0 | 0.00 | 0.00 | 0.00 | 97 | 1016.8 |
| 20260902074503 | 56 | 5 | 1.0 | 6.0 | 0.00 | 0.00 | 0.00 | 97 | 1017.0 |
| 20260902074403 | 56 | 11 | 3.0 | 6.0 | 0.00 | 0.00 | 0.00 | 97 | 1017.0 |
| 20260902074303 | 56 | 7 | 2.0 | 4.0 | 0.00 | 0.00 | 0.00 | 97 | 1017.0 |
| 20260902074218 | 56 | 11 | 1.0 | 4.0 | 0.00 | 0.00 | 0.00 | 97 | 1016.9 |
| 20260902074203 | 56 | 12 | 1.0 | 4.0 | 0.00 | 0.00 | 0.00 | 97 | 1016.9 |
| 20260902074103 | 56 | 9 | 2.0 | 4.0 | 0.00 | 0.00 | 0.00 | 97 | 1016.9 |
| 20260902074017 | 56 | 8 | 2.0 | 4.0 | 0.00 | 0.00 | 0.00 | 97 | 1017.1 |
| 20260902073903 | 56 | 3 | 2.0 | 4.0 | 0.00 | 0.00 | 0.00 | 97 | 1016.8 |
| 20260902073703 | 56 | 9 | 2.0 | 4.0 | 0.00 | 0.00 | 0.00 | 97 | 1016.9 |
| 20260902073603 | 56 | 6 | 1.0 | 4.0 | 0.00 | 0.00 | 0.00 | 97 | 1016.8 |
| 20260902073503 | 56 | 3 | 3.0 | 4.0 | 0.00 | 0.00 | 0.00 | 97 | 1017.0 |
| 20260902073303 | 56 | 358 | 2.0 | 4.0 | 0.00 | 0.00 | 0.00 | 97 | 1017.1 |
| 20260902073203 | 56 | 351 | 2.0 | 4.0 | 0.00 | 0.00 | 0.00 | 97 | 1017.0 |
| 20260902073103 | 56 | 352 | 1.0 | 6.0 | 0.00 | 0.00 | 0.00 | 97 | 1016.9 |
| 20260902073003 | 56 | 349 | 1.0 | 6.0 | 0.00 | 0.00 | 0.00 | 97 | 1017.2 |
| 20260902072903 | 56 | 348 | 2.0 | 6.0 | 0.00 | 0.00 | 0.00 | 97 | 1017.1 |
| 20260902072803 | 56 | 345 | 2.0 | 6.0 | 0.00 | 0.00 | 0.00 | 97 | 1017.2 |
| 20260902072717 | 57 | 347 | 2.0 | 6.0 | 0.00 | 0.00 | 0.00 | 97 | 1017.1 |
| 20260902072603 | 57 | 353 | 4.0 | 6.0 | 0.00 | 0.00 | 0.00 | 97 | 1017.1 |
| 20260902072403 | 57 | 356 | 2.0 | 6.0 | 0.00 | 0.00 | 0.00 | 97 | 1017.2 |
| 20260902072308 | 57 | 1 | 3.0 | 6.0 | 0.00 | 0.00 | 0.00 | 97 | 1017.2 |
| 20260902072218 | 57 | 3 | 2.0 | 6.0 | 0.00 | 0.00 | 0.00 | 97 | 1017.0 |
| 20260902072203 | 57 | 2 | 2.0 | 6.0 | 0.00 | 0.00 | 0.00 | 97 | 1017.0 |
| 20260902072103 | 57 | 356 | 4.0 | 6.0 | 0.00 | 0.00 | 0.00 | 97 | 1017.2 |
| 20260902071903 | 57 | 359 | 2.0 | 4.0 | 0.00 | 0.00 | 0.00 | 97 | 1017.2 |
| 20260902071803 | 57 | 358 | 2.0 | 4.0 | 0.00 | 0.00 | 0.00 | 97 | 1017.1 |
| 20260902071703 | 57 | 353 | 2.0 | 4.0 | 0.00 | 0.00 | 0.00 | 97 | 1017.2 |
| 20260902071603 | 57 | 350 | 1.0 | 6.0 | 0.00 | 0.00 | 0.00 | 97 | 1017.3 |
| 20260902071503 | 57 | 1 | 2.0 | 6.0 | 0.00 | 0.00 | 0.00 | 96 | 1016.9 |
| 20260902071403 | 57 | 1 | 2.0 | 6.0 | 0.00 | 0.00 | 0.00 | 96 | 1017.1 |
| 20260902071303 | 57 | 3 | 1.0 | 6.0 | 0.00 | 0.00 | 0.00 | 96 | 1017.1 |
| 20260902071220 | 57 | 359 | 0.0 | 6.0 | 0.00 | 0.00 | 0.00 | 96 | 1017.3 |
| 20260902071203 | 57 | 358 | 0.0 | 6.0 | 0.00 | 0.00 | 0.00 | 96 | 1017.3 |
| 20260902071103 | 57 | 359 | 3.0 | 4.0 | 0.00 | 0.00 | 0.00 | 96 | 1017.3 |
| 20260902070903 | 57 | 354 | 2.0 | 4.0 | 0.00 | 0.00 | 0.00 | 96 | 1017.3 |
| 20260902070803 | 57 | 353 | 1.0 | 4.0 | 0.00 | 0.00 | 0.00 | 96 | 1017.3 |
| 20260902070703 | 57 | 2 | 2.0 | 4.0 | 0.00 | 0.00 | 0.00 | 96 | 1017.1 |
| 20260902070603 | 57 | 8 | 2.0 | 4.0 | 0.00 | 0.00 | 0.00 | 96 | 1017.3 |
| 20260902070503 | 57 | 4 | 2.0 | 4.0 | 0.00 | 0.00 | 0.00 | 96 | 1017.4 |
| 20260902070403 | 57 | 3 | 2.0 | 4.0 | 0.00 | 0.00 | 0.00 | 96 | 1017.4 |
| 20260902070303 | 57 | 6 | 1.0 | 4.0 | 0.00 | 0.00 | 0.00 | 96 | 1017.4 |
| 20260902070203 | 57 | 354 | 1.0 | 4.0 | 0.00 | 0.00 | 0.00 | 96 | 1017.4 |
| 20260902065903 | 57 | 347 | 2.0 | 6.0 | 0.00 | 0.00 | 0.00 | 96 | 1017.5 |
| 20260902065803 | 57 | 340 | 2.0 | 6.0 | 0.00 | 0.00 | 0.00 | 96 | 1017.5 |
| 20260902065703 | 57 | 345 | 1.0 | 6.0 | 0.00 | 0.00 | 0.00 | 96 | 1017.5 |
| 20260902065603 | 57 | 354 | 0.0 | 6.0 | 0.00 | 0.00 | 0.00 | 96 | 1017.5 |
| 20260902065503 | 57 | 357 | 2.0 | 6.0 | 0.00 | 0.00 | 0.00 | 96 | 1017.4 |
| 20260902065403 | 57 | 3 | 0.0 | 4.0 | 0.00 | 0.00 | 0.00 | 96 | 1017.5 |
| 20260902065306 | 57 | 7 | 0.0 | 4.0 | 0.00 | 0.00 | 0.00 | 96 | 1017.5 |
| 20260902065203 | 57 | 7 | 0.0 | 4.0 | 0.00 | 0.00 | 0.00 | 96 | 1017.5 |
| 20260902065103 | 57 | 353 | 1.0 | 4.0 | 0.00 | 0.00 | 0.00 | 96 | 1017.5 |
| 20260902065003 | 57 | 354 | 0.0 | 4.0 | 0.00 | 0.00 | 0.00 | 96 | 1017.5 |
| 20260902064917 | 57 | 357 | 1.0 | 4.0 | 0.00 | 0.00 | 0.00 | 96 | 1017.7 |
| 20260902064903 | 57 | 359 | 1.0 | 4.0 | 0.00 | 0.00 | 0.00 | 96 | 1017.7 |
| 20260902064803 | 57 | 356 | 2.0 | 4.0 | 0.00 | 0.00 | 0.00 | 96 | 1017.5 |
| 20260902064603 | 57 | 7 | 2.0 | 2.0 | 0.00 | 0.00 | 0.00 | 96 | 1017.5 |
| 20260902064503 | 57 | 21 | 2.0 | 2.0 | 0.00 | 0.00 | 0.00 | 96 | 1017.6 |
| 20260902064403 | 57 | 29 | 1.0 | 2.0 | 0.00 | 0.00 | 0.00 | 96 | 1017.6 |
| 20260902064303 | 57 | 27 | 1.0 | 4.0 | 0.00 | 0.00 | 0.00 | 96 | 1017.5 |
| 20260902064203 | 57 | 33 | 1.0 | 4.0 | 0.00 | 0.00 | 0.00 | 96 | 1017.5 |
| 20260902064103 | 57 | 28 | 1.0 | 4.0 | 0.00 | 0.00 | 0.00 | 96 | 1017.5 |
| 20260902064003 | 57 | 28 | 0.0 | 4.0 | 0.00 | 0.00 | 0.00 | 96 | 1017.5 |
| 20260902063903 | 57 | 30 | 1.0 | 4.0 | 0.00 | 0.00 | 0.00 | 96 | 1017.7 |
| 20260902063803 | 57 | 35 | 1.0 | 4.0 | 0.00 | 0.00 | 0.00 | 96 | 1017.7 |
| 20260902063703 | 57 | 29 | 1.0 | 4.0 | 0.00 | 0.00 | 0.00 | 96 | 1017.6 |
| 20260902063603 | 57 | 29 | 2.0 | 4.0 | 0.00 | 0.00 | 0.00 | 96 | 1017.7 |
| 20260902063503 | 57 | 33 | 2.0 | 4.0 | 0.00 | 0.00 | 0.00 | 96 | 1017.6 |
| 20260902063403 | 57 | 32 | 0.0 | 4.0 | 0.00 | 0.00 | 0.00 | 96 | 1017.6 |
| 20260902063303 | 57 | 33 | 1.0 | 4.0 | 0.00 | 0.00 | 0.00 | 96 | 1017.4 |
| 20260902063203 | 57 | 37 | 0.0 | 4.0 | 0.00 | 0.00 | 0.00 | 96 | 1017.7 |
| 20260902063103 | 57 | 51 | 2.0 | 4.0 | 0.00 | 0.00 | 0.00 | 96 | 1017.4 |
| 20260902063003 | 57 | 51 | 1.0 | 4.0 | 0.00 | 0.00 | 0.00 | 96 | 1017.7 |
| 20260902062903 | 57 | 53 | 0.0 | 4.0 | 0.00 | 0.00 | 0.00 | 96 | 1017.5 |
| 20260902062803 | 57 | 58 | 1.0 | 4.0 | 0.00 | 0.00 | 0.00 | 96 | 1017.7 |
| 20260902062703 | 57 | 64 | 2.0 | 4.0 | 0.00 | 0.00 | 0.00 | 96 | 1017.5 |
| 20260902062603 | 57 | 56 | 0.0 | 4.0 | 0.00 | 0.00 | 0.00 | 96 | 1017.5 |
| 20260902062503 | 57 | 49 | 0.0 | 4.0 | 0.00 | 0.00 | 0.00 | 96 | 1017.4 |
| 20260902062403 | 57 | 50 | 0.0 | 4.0 | 0.00 | 0.00 | 0.00 | 96 | 1017.5 |
| 20260902062305 | 57 | 51 | 1.0 | 4.0 | 0.00 | 0.00 | 0.00 | 96 | 1017.6 |
| 20260902062203 | 57 | 44 | 1.0 | 4.0 | 0.00 | 0.00 | 0.00 | 96 | 1017.6 |
| 20260902062118 | 57 | 41 | 2.0 | 4.0 | 0.00 | 0.00 | 0.00 | 96 | 1017.7 |
| 20260902062103 | 57 | 43 | 2.0 | 4.0 | 0.00 | 0.00 | 0.00 | 96 | 1017.7 |
| 20260902062003 | 57 | 35 | 1.0 | 4.0 | 0.00 | 0.00 | 0.00 | 96 | 1017.5 |
| 20260902061803 | 57 | 15 | 0.0 | 4.0 | 0.00 | 0.00 | 0.00 | 96 | 1017.6 |
| 20260902061718 | 57 | 17 | 1.0 | 4.0 | 0.00 | 0.00 | 0.00 | 96 | 1017.8 |
| 20260902061703 | 57 | 18 | 1.0 | 4.0 | 0.00 | 0.00 | 0.00 | 96 | 1017.8 |
| 20260902061532 | 57 | 24 | 3.0 | 4.0 | 0.00 | 0.00 | 0.00 | 96 | 1017.8 |
| 20260902061432 | 57 | 37 | 2.0 | 4.0 | 0.00 | 0.00 | 0.00 | 96 | 1017.8 |
| 20260902061403 | 57 | 42 | 2.0 | 4.0 | 0.00 | 0.00 | 0.00 | 96 | 1017.6 |
| 20260902061203 | 57 | 40 | 1.0 | 4.0 | 0.00 | 0.00 | 0.00 | 96 | 1017.6 |
| 20260902060907 | 57 | 33 | 2.0 | 7.0 | 0.00 | 0.00 | 0.00 | 96 | 1017.8 |
| 20260902060803 | 57 | 39 | 1.0 | 7.0 | 0.00 | 0.00 | 0.00 | 96 | 1017.5 |
| 20260902060703 | 57 | 35 | 1.0 | 7.0 | 0.00 | 0.00 | 0.00 | 96 | 1017.6 |
| 20260902060603 | 57 | 30 | 2.0 | 7.0 | 0.00 | 0.00 | 0.00 | 96 | 1017.9 |
| 20260902060503 | 57 | 34 | 3.0 | 7.0 | 0.00 | 0.00 | 0.00 | 96 | 1017.6 |
| 20260902060403 | 57 | 34 | 2.0 | 4.0 | 0.00 | 0.00 | 0.00 | 96 | 1017.8 |
| 20260902060317 | 57 | 34 | 2.0 | 4.0 | 0.00 | 0.00 | 0.00 | 96 | 1017.7 |
| 20260902060303 | 57 | 35 | 2.0 | 4.0 | 0.00 | 0.00 | 0.00 | 96 | 1017.8 |
| 20260902060203 | 57 | 49 | 2.0 | 4.0 | 0.00 | 0.00 | 0.00 | 96 | 1017.9 |
| 20260902060003 | 57 | 52 | 2.0 | 4.0 | 0.00 | 0.00 | 0.00 | 96 | 1017.8 |
| 20260902055903 | 57 | 46 | 2.0 | 4.0 | 0.00 | 0.00 | 0.00 | 96 | 1018.1 |
| 20260902055703 | 57 | 38 | 2.0 | 4.0 | 0.00 | 0.00 | 0.00 | 96 | 1018.0 |
| 20260902055603 | 57 | 49 | 2.0 | 4.0 | 0.00 | 0.00 | 0.00 | 96 | 1017.9 |
| 20260902055503 | 57 | 50 | 1.0 | 7.0 | 0.00 | 0.00 | 0.00 | 96 | 1017.6 |
| 20260902055403 | 57 | 43 | 0.0 | 7.0 | 0.00 | 0.00 | 0.00 | 96 | 1017.7 |
| 20260902055306 | 57 | 33 | 1.0 | 7.0 | 0.00 | 0.00 | 0.00 | 96 | 1017.9 |
| 20260902055203 | 57 | 24 | 1.0 | 7.0 | 0.00 | 0.00 | 0.00 | 96 | 1017.7 |
| 20260902055103 | 57 | 15 | 4.0 | 7.0 | 0.00 | 0.00 | 0.00 | 96 | 1017.6 |
| 20260902055003 | 57 | 6 | 2.0 | 6.0 | 0.00 | 0.00 | 0.00 | 96 | 1018.0 |
| 20260902054903 | 57 | 6 | 2.0 | 6.0 | 0.00 | 0.00 | 0.00 | 96 | 1018.0 |
| 20260902054803 | 57 | 10 | 1.0 | 6.0 | 0.00 | 0.00 | 0.00 | 96 | 1018.0 |
| 20260902054703 | 57 | 14 | 2.0 | 4.0 | 0.00 | 0.00 | 0.00 | 96 | 1017.7 |
| 20260902054603 | 57 | 8 | 1.0 | 6.0 | 0.00 | 0.00 | 0.00 | 96 | 1017.9 |
| 20260902054503 | 57 | 12 | 2.0 | 6.0 | 0.00 | 0.00 | 0.00 | 96 | 1017.7 |
| 20260902054403 | 57 | 22 | 3.0 | 6.0 | 0.00 | 0.00 | 0.00 | 96 | 1017.8 |
| 20260902054303 | 57 | 30 | 1.0 | 6.0 | 0.00 | 0.00 | 0.00 | 96 | 1018.0 |
| 20260902054203 | 57 | 40 | 2.0 | 6.0 | 0.00 | 0.00 | 0.00 | 96 | 1017.9 |
| 20260902054103 | 57 | 44 | 2.0 | 6.0 | 0.00 | 0.00 | 0.00 | 96 | 1018.1 |
| 20260902054003 | 57 | 45 | 2.0 | 6.0 | 0.00 | 0.00 | 0.00 | 96 | 1017.8 |
| 20260902053903 | 57 | 34 | 3.0 | 6.0 | 0.00 | 0.00 | 0.00 | 96 | 1018.0 |
| 20260902053817 | 57 | 25 | 2.0 | 6.0 | 0.00 | 0.00 | 0.00 | 96 | 1017.8 |
| 20260902053803 | 57 | 22 | 2.0 | 6.0 | 0.00 | 0.00 | 0.00 | 96 | 1017.8 |
| 20260902053703 | 57 | 6 | 2.0 | 4.0 | 0.00 | 0.00 | 0.00 | 96 | 1017.9 |
| 20260902053503 | 57 | 18 | 1.0 | 8.0 | 0.00 | 0.00 | 0.00 | 96 | 1017.7 |
| 20260902053403 | 57 | 35 | 1.0 | 8.0 | 0.00 | 0.00 | 0.00 | 96 | 1017.9 |
| 20260902053303 | 57 | 36 | 1.0 | 9.0 | 0.00 | 0.00 | 0.00 | 96 | 1018.0 |
| 20260902053203 | 57 | 39 | 1.0 | 9.0 | 0.00 | 0.00 | 0.00 | 96 | 1017.5 |
| 20260902053103 | 57 | 46 | 2.0 | 9.0 | 0.00 | 0.00 | 0.00 | 96 | 1018.0 |
| 20260902053003 | 57 | 46 | 3.0 | 9.0 | 0.00 | 0.00 | 0.00 | 96 | 1017.9 |
| 20260902052917 | 57 | 38 | 4.0 | 9.0 | 0.00 | 0.00 | 0.00 | 96 | 1017.9 |
| 20260902052903 | 57 | 32 | 4.0 | 9.0 | 0.00 | 0.00 | 0.00 | 96 | 1017.9 |
| 20260902052803 | 57 | 43 | 2.0 | 9.0 | 0.00 | 0.00 | 0.00 | 96 | 1018.0 |
| 20260902052617 | 57 | 49 | 2.0 | 7.0 | 0.00 | 0.00 | 0.00 | 96 | 1017.9 |
| 20260902052603 | 57 | 52 | 2.0 | 7.0 | 0.00 | 0.00 | 0.00 | 96 | 1017.9 |
| 20260902052517 | 57 | 55 | 2.0 | 7.0 | 0.00 | 0.00 | 0.00 | 96 | 1018.0 |
| 20260902052503 | 57 | 53 | 2.0 | 7.0 | 0.00 | 0.00 | 0.00 | 96 | 1018.0 |
| 20260902052217 | 57 | 48 | 2.0 | 8.0 | 0.00 | 0.00 | 0.00 | 96 | 1018.1 |
| 20260902052203 | 57 | 47 | 2.0 | 8.0 | 0.00 | 0.00 | 0.00 | 96 | 1018.1 |
| 20260902052103 | 57 | 40 | 2.0 | 8.0 | 0.00 | 0.00 | 0.00 | 96 | 1018.1 |
| 20260902051917 | 57 | 35 | 3.0 | 8.0 | 0.00 | 0.00 | 0.00 | 96 | 1018.0 |
| 20260902051903 | 57 | 32 | 4.0 | 8.0 | 0.00 | 0.00 | 0.00 | 96 | 1018.2 |
| 20260902051803 | 57 | 32 | 3.0 | 8.0 | 0.00 | 0.00 | 0.00 | 96 | 1018.1 |
| 20260902051603 | 57 | 30 | 2.0 | 6.0 | 0.00 | 0.00 | 0.00 | 96 | 1018.4 |
| 20260902051503 | 57 | 22 | 0.0 | 4.0 | 0.00 | 0.00 | 0.00 | 96 | 1018.3 |
| 20260902051403 | 57 | 17 | 0.0 | 4.0 | 0.00 | 0.00 | 0.00 | 96 | 1018.2 |
| 20260902051303 | 57 | 29 | 1.0 | 4.0 | 0.00 | 0.00 | 0.00 | 96 | 1018.4 |
| 20260902051203 | 57 | 25 | 1.0 | 4.0 | 0.00 | 0.00 | 0.00 | 96 | 1018.2 |
| 20260902051103 | 58 | 31 | 2.0 | 4.0 | 0.00 | 0.00 | 0.00 | 96 | 1018.2 |
| 20260902051003 | 58 | 26 | 2.0 | 4.0 | 0.00 | 0.00 | 0.00 | 96 | 1018.4 |
| 20260902050903 | 58 | 16 | 1.0 | 4.0 | 0.00 | 0.00 | 0.00 | 96 | 1018.2 |
| 20260902050803 | 58 | 12 | 2.0 | 4.0 | 0.00 | 0.00 | 0.00 | 96 | 1018.3 |
| 20260902050703 | 58 | 5 | 2.0 | 6.0 | 0.00 | 0.00 | 0.00 | 96 | 1018.4 |
| 20260902050603 | 58 | 356 | 1.0 | 6.0 | 0.00 | 0.00 | 0.00 | 96 | 1018.4 |
| 20260902050504 | 58 | 6 | 1.0 | 6.0 | 0.00 | 0.00 | 0.00 | 96 | 1018.5 |
| 20260902050418 | 58 | 12 | 2.0 | 6.0 | 0.00 | 0.00 | 0.00 | 96 | 1018.3 |
| 20260902050403 | 58 | 15 | 2.0 | 6.0 | 0.00 | 0.00 | 0.00 | 96 | 1018.3 |
| 20260902050303 | 58 | 12 | 2.0 | 6.0 | 0.00 | 0.00 | 0.00 | 96 | 1018.5 |
| 20260902050006 | 58 | 17 | 2.0 | 6.0 | 0.00 | 0.00 | 0.00 | 96 | 1018.4 |
| 20260902045916 | 58 | 17 | 2.0 | 6.0 | 0.00 | 0.00 | 0.00 | 96 | 1018.4 |
| 20260902045903 | 58 | 16 | 3.0 | 6.0 | 0.00 | 0.00 | 0.00 | 96 | 1018.5 |
| 20260902045803 | 58 | 26 | 1.0 | 4.0 | 0.00 | 0.00 | 0.00 | 96 | 1018.3 |
| 20260902045718 | 58 | 28 | 3.0 | 4.0 | 0.00 | 0.00 | 0.00 | 96 | 1018.4 |
| 20260902045603 | 58 | 28 | 1.0 | 4.0 | 0.00 | 0.00 | 0.00 | 96 | 1018.7 |
| 20260902045403 | 58 | 41 | 0.0 | 4.0 | 0.00 | 0.00 | 0.00 | 96 | 1018.5 |
| 20260902045306 | 58 | 52 | 2.0 | 4.0 | 0.00 | 0.00 | 0.00 | 96 | 1018.6 |
| 20260902045203 | 58 | 50 | 1.0 | 4.0 | 0.00 | 0.00 | 0.00 | 96 | 1018.4 |
| 20260902045103 | 58 | 55 | 0.0 | 4.0 | 0.00 | 0.00 | 0.00 | 95 | 1018.5 |
| 20260902045018 | 58 | 52 | 1.0 | 4.0 | 0.00 | 0.00 | 0.00 | 95 | 1018.6 |
| 20260902044903 | 58 | 55 | 1.0 | 4.0 | 0.00 | 0.00 | 0.00 | 95 | 1018.7 |
| 20260902044817 | 58 | 51 | 2.0 | 4.0 | 0.00 | 0.00 | 0.00 | 95 | 1018.5 |
| 20260902044703 | 58 | 48 | 2.0 | 4.0 | 0.00 | 0.00 | 0.00 | 95 | 1018.5 |
| 20260902044503 | 58 | 45 | 0.0 | 4.0 | 0.00 | 0.00 | 0.00 | 95 | 1018.6 |
| 20260902044403 | 58 | 36 | 1.0 | 4.0 | 0.00 | 0.00 | 0.00 | 95 | 1018.8 |
| 20260902044318 | 58 | 34 | 0.0 | 4.0 | 0.00 | 0.00 | 0.00 | 95 | 1018.6 |
| 20260902044303 | 58 | 32 | 0.0 | 4.0 | 0.00 | 0.00 | 0.00 | 95 | 1018.5 |
| 20260902044203 | 58 | 28 | 1.0 | 4.0 | 0.00 | 0.00 | 0.00 | 95 | 1018.5 |
| 20260902044117 | 58 | 32 | 2.0 | 4.0 | 0.00 | 0.00 | 0.00 | 95 | 1018.6 |
| 20260902044003 | 58 | 26 | 2.0 | 4.0 | 0.00 | 0.00 | 0.00 | 95 | 1018.4 |
| 20260902043803 | 58 | 53 | 2.0 | 4.0 | 0.00 | 0.00 | 0.00 | 95 | 1018.5 |
| 20260902043703 | 58 | 73 | 0.0 | 4.0 | 0.00 | 0.00 | 0.00 | 95 | 1018.5 |
| 20260902043603 | 58 | 77 | 1.0 | 4.0 | 0.00 | 0.00 | 0.00 | 95 | 1018.5 |
| 20260902043503 | 58 | 84 | 0.0 | 4.0 | 0.00 | 0.00 | 0.00 | 95 | 1018.7 |
| 20260902043418 | 58 | 78 | 0.0 | 4.0 | 0.00 | 0.00 | 0.00 | 95 | 1018.8 |
| 20260902043403 | 58 | 74 | 0.0 | 4.0 | 0.00 | 0.00 | 0.00 | 95 | 1018.8 |
| 20260902043303 | 58 | 66 | 2.0 | 4.0 | 0.00 | 0.00 | 0.00 | 95 | 1018.8 |
| 20260902043103 | 58 | 53 | 1.0 | 4.0 | 0.00 | 0.00 | 0.00 | 95 | 1018.6 |
| 20260902043003 | 58 | 45 | 2.0 | 4.0 | 0.00 | 0.00 | 0.00 | 95 | 1018.8 |
| 20260902042903 | 58 | 52 | 2.0 | 4.0 | 0.00 | 0.00 | 0.00 | 95 | 1018.7 |
| 20260902042803 | 58 | 47 | 2.0 | 4.0 | 0.00 | 0.00 | 0.00 | 95 | 1018.9 |
| 20260902042703 | 58 | 27 | 0.0 | 6.0 | 0.00 | 0.00 | 0.00 | 95 | 1018.9 |
| 20260902042603 | 58 | 24 | 1.0 | 6.0 | 0.00 | 0.00 | 0.00 | 95 | 1018.8 |
| 20260902042503 | 58 | 27 | 1.0 | 6.0 | 0.00 | 0.00 | 0.00 | 95 | 1018.7 |
| 20260902042403 | 58 | 24 | 1.0 | 6.0 | 0.00 | 0.00 | 0.00 | 95 | 1018.7 |
| 20260902042308 | 58 | 24 | 1.0 | 6.0 | 0.00 | 0.00 | 0.00 | 95 | 1018.8 |
| 20260902042203 | 58 | 43 | 0.0 | 4.0 | 0.00 | 0.00 | 0.00 | 95 | 1018.7 |
| 20260902042103 | 58 | 51 | 0.0 | 4.0 | 0.00 | 0.00 | 0.00 | 95 | 1018.8 |
| 20260902042003 | 58 | 50 | 1.0 | 4.0 | 0.00 | 0.00 | 0.00 | 95 | 1018.6 |
| 20260902041903 | 58 | 53 | 1.0 | 4.0 | 0.00 | 0.00 | 0.00 | 95 | 1018.9 |
| 20260902041803 | 58 | 58 | 2.0 | 4.0 | 0.00 | 0.00 | 0.00 | 95 | 1018.8 |
| 20260902041703 | 58 | 59 | 3.0 | 4.0 | 0.00 | 0.00 | 0.00 | 95 | 1018.8 |
| 20260902041618 | 58 | 58 | 2.0 | 4.0 | 0.00 | 0.00 | 0.00 | 95 | 1018.8 |
| 20260902041603 | 58 | 57 | 2.0 | 4.0 | 0.00 | 0.00 | 0.00 | 95 | 1018.8 |
| 20260902041517 | 58 | 50 | 1.0 | 2.0 | 0.00 | 0.00 | 0.00 | 95 | 1018.7 |
| 20260902041505 | 58 | 51 | 1.0 | 2.0 | 0.00 | 0.00 | 0.00 | 95 | 1018.7 |
| 20260902041203 | 59 | 73 | 0.0 | 4.0 | 0.00 | 0.00 | 0.00 | 95 | 1018.9 |
| 20260902041103 | 58 | 73 | 1.0 | 4.0 | 0.00 | 0.00 | 0.00 | 95 | 1019.0 |
| 20260902041018 | 59 | 77 | 1.0 | 4.0 | 0.00 | 0.00 | 0.00 | 95 | 1018.9 |
| 20260902041003 | 59 | 74 | 1.0 | 4.0 | 0.00 | 0.00 | 0.00 | 95 | 1018.9 |
| 20260902040916 | 59 | 61 | 1.0 | 4.0 | 0.00 | 0.00 | 0.00 | 95 | 1018.6 |
| 20260902040903 | 59 | 55 | 1.0 | 4.0 | 0.00 | 0.00 | 0.00 | 95 | 1018.6 |
| 20260902040718 | 58 | 37 | 0.0 | 4.0 | 0.00 | 0.00 | 0.00 | 95 | 1018.8 |
| 20260902040603 | 59 | 33 | 0.0 | 4.0 | 0.00 | 0.00 | 0.00 | 95 | 1018.9 |
| 20260902040403 | 59 | 49 | 2.0 | 4.0 | 0.00 | 0.00 | 0.00 | 95 | 1019.0 |
| 20260902040303 | 59 | 61 | 0.0 | 4.0 | 0.00 | 0.00 | 0.00 | 95 | 1018.8 |
| 20260902040218 | 59 | 65 | 0.0 | 4.0 | 0.00 | 0.00 | 0.00 | 95 | 1018.9 |
| 20260902040203 | 59 | 66 | 0.0 | 4.0 | 0.00 | 0.00 | 0.00 | 95 | 1018.9 |
| 20260902040117 | 59 | 68 | 1.0 | 4.0 | 0.00 | 0.00 | 0.00 | 95 | 1018.8 |
| 20260902040103 | 59 | 70 | 1.0 | 4.0 | 0.00 | 0.00 | 0.00 | 95 | 1018.8 |
| 20260902035803 | 59 | 73 | 0.0 | 4.0 | 0.00 | 0.00 | 0.00 | 95 | 1018.7 |
| 20260902035703 | 59 | 56 | 1.0 | 6.0 | 0.00 | 0.00 | 0.00 | 95 | 1018.8 |
| 20260902035603 | 59 | 54 | 0.0 | 6.0 | 0.00 | 0.00 | 0.00 | 95 | 1018.9 |
| 20260902035503 | 59 | 56 | 0.0 | 6.0 | 0.00 | 0.00 | 0.00 | 95 | 1018.9 |
| 20260902035403 | 59 | 59 | 0.0 | 6.0 | 0.00 | 0.00 | 0.00 | 95 | 1018.8 |
| 20260902035305 | 59 | 56 | 1.0 | 6.0 | 0.00 | 0.00 | 0.00 | 95 | 1018.9 |
| 20260902035203 | 59 | 63 | 2.0 | 6.0 | 0.00 | 0.00 | 0.00 | 95 | 1018.6 |
| 20260902035103 | 59 | 67 | 0.0 | 4.0 | 0.00 | 0.00 | 0.00 | 95 | 1019.0 |
| 20260902035003 | 59 | 66 | 0.0 | 4.0 | 0.00 | 0.00 | 0.00 | 95 | 1019.1 |
| 20260902034903 | 59 | 65 | 1.0 | 4.0 | 0.00 | 0.00 | 0.00 | 95 | 1018.9 |
| 20260902034703 | 59 | 67 | 2.0 | 4.0 | 0.00 | 0.00 | 0.00 | 95 | 1018.9 |
| 20260902034603 | 59 | 63 | 0.0 | 2.0 | 0.00 | 0.00 | 0.00 | 95 | 1019.0 |
| 20260902034503 | 59 | 54 | 0.0 | 2.0 | 0.00 | 0.00 | 0.00 | 95 | 1019.0 |
| 20260902034403 | 59 | 51 | 0.0 | 2.0 | 0.00 | 0.00 | 0.00 | 94 | 1019.1 |
| 20260902034303 | 59 | 51 | 0.0 | 2.0 | 0.00 | 0.00 | 0.00 | 94 | 1018.9 |
| 20260902034103 | 59 | 65 | 1.0 | 2.0 | 0.00 | 0.00 | 0.00 | 94 | 1019.0 |
| 20260902034003 | 59 | 78 | 1.0 | 2.0 | 0.00 | 0.00 | 0.00 | 94 | 1019.0 |
| 20260902033903 | 59 | 84 | 0.0 | 2.0 | 0.00 | 0.00 | 0.00 | 94 | 1019.0 |
| 20260902033803 | 59 | 82 | 0.0 | 2.0 | 0.00 | 0.00 | 0.00 | 94 | 1018.8 |
| 20260902033703 | 59 | 81 | 1.0 | 2.0 | 0.00 | 0.00 | 0.00 | 94 | 1019.0 |
| 20260902033603 | 59 | 78 | 1.0 | 2.0 | 0.00 | 0.00 | 0.00 | 94 | 1018.7 |
| 20260902033503 | 59 | 74 | 0.0 | 2.0 | 0.00 | 0.00 | 0.00 | 94 | 1019.0 |
| 20260902033403 | 59 | 72 | 0.0 | 2.0 | 0.00 | 0.00 | 0.00 | 94 | 1018.9 |
| 20260902033318 | 59 | 73 | 1.0 | 2.0 | 0.00 | 0.00 | 0.00 | 94 | 1018.7 |
| 20260902033303 | 59 | 74 | 1.0 | 2.0 | 0.00 | 0.00 | 0.00 | 94 | 1018.7 |
| 20260902033203 | 59 | 76 | 0.0 | 2.0 | 0.00 | 0.00 | 0.00 | 94 | 1019.0 |
| 20260902033003 | 59 | 82 | 0.0 | 2.0 | 0.00 | 0.00 | 0.00 | 94 | 1019.0 |
| 20260902032903 | 59 | 70 | 0.0 | 2.0 | 0.00 | 0.00 | 0.00 | 94 | 1019.0 |
| 20260902032803 | 59 | 71 | 0.0 | 2.0 | 0.00 | 0.00 | 0.00 | 94 | 1019.0 |
| 20260902032717 | 59 | 69 | 0.0 | 2.0 | 0.00 | 0.00 | 0.00 | 94 | 1019.2 |
| 20260902032703 | 59 | 71 | 1.0 | 2.0 | 0.00 | 0.00 | 0.00 | 94 | 1019.0 |
| 20260902032603 | 59 | 72 | 0.0 | 4.0 | 0.00 | 0.00 | 0.00 | 94 | 1019.2 |
| 20260902032403 | 59 | 80 | 1.0 | 4.0 | 0.00 | 0.00 | 0.00 | 94 | 1019.2 |
| 20260902032305 | 59 | 81 | 1.0 | 4.0 | 0.00 | 0.00 | 0.00 | 94 | 1019.3 |
| 20260902032203 | 59 | 85 | 1.0 | 4.0 | 0.00 | 0.00 | 0.00 | 94 | 1019.0 |
| 20260902032103 | 59 | 91 | 1.0 | 4.0 | 0.00 | 0.00 | 0.00 | 94 | 1019.1 |
| 20260902031918 | 59 | 95 | 1.0 | 2.0 | 0.00 | 0.00 | 0.00 | 94 | 1019.2 |
| 20260902031909 | 59 | 92 | 0.0 | 2.0 | 0.00 | 0.00 | 0.00 | 94 | 1019.1 |
| 20260902031803 | 59 | 85 | 0.0 | 2.0 | 0.00 | 0.00 | 0.00 | 94 | 1019.0 |
| 20260902031603 | 59 | 84 | 0.0 | 2.0 | 0.00 | 0.00 | 0.00 | 94 | 1019.2 |
| 20260902031503 | 59 | 78 | 0.0 | 2.0 | 0.00 | 0.00 | 0.00 | 94 | 1019.2 |
| 20260902031417 | 59 | 78 | 0.0 | 2.0 | 0.00 | 0.00 | 0.00 | 94 | 1019.1 |
| 20260902031403 | 59 | 80 | 0.0 | 2.0 | 0.00 | 0.00 | 0.00 | 94 | 1019.1 |
| 20260902031303 | 59 | 81 | 1.0 | 2.0 | 0.00 | 0.00 | 0.00 | 94 | 1019.2 |
| 20260902031218 | 59 | 79 | 1.0 | 2.0 | 0.00 | 0.00 | 0.00 | 94 | 1019.0 |
| 20260902031103 | 59 | 76 | 1.0 | 2.0 | 0.00 | 0.00 | 0.00 | 94 | 1019.0 |
| 20260902031017 | 59 | 81 | 1.0 | 2.0 | 0.00 | 0.00 | 0.00 | 94 | 1019.2 |
| 20260902030903 | 59 | 83 | 0.0 | 4.0 | 0.00 | 0.00 | 0.00 | 94 | 1019.0 |
| 20260902030703 | 59 | 90 | 1.0 | 4.0 | 0.00 | 0.00 | 0.00 | 94 | 1019.1 |
| 20260902030603 | 59 | 90 | 1.0 | 4.0 | 0.00 | 0.00 | 0.00 | 94 | 1019.3 |
| 20260902030503 | 59 | 86 | 0.0 | 4.0 | 0.00 | 0.00 | 0.00 | 94 | 1019.0 |
| 20260902030403 | 59 | 82 | 1.0 | 4.0 | 0.00 | 0.00 | 0.00 | 94 | 1019.3 |
| 20260902030303 | 59 | 82 | 0.0 | 4.0 | 0.00 | 0.00 | 0.00 | 94 | 1019.2 |
| 20260902030203 | 59 | 83 | 0.0 | 4.0 | 0.00 | 0.00 | 0.00 | 94 | 1019.3 |
| 20260902030103 | 59 | 83 | 1.0 | 4.0 | 0.00 | 0.00 | 0.00 | 94 | 1019.1 |
| 20260902030003 | 59 | 85 | 1.0 | 4.0 | 0.00 | 0.00 | 0.00 | 94 | 1019.2 |
| 20260902025903 | 59 | 86 | 1.0 | 4.0 | 0.00 | 0.00 | 0.00 | 94 | 1019.0 |
| 20260902025703 | 59 | 75 | 1.0 | 4.0 | 0.00 | 0.00 | 0.00 | 94 | 1019.1 |
| 20260902025603 | 59 | 74 | 1.0 | 4.0 | 0.00 | 0.00 | 0.00 | 94 | 1019.2 |
| 20260902025504 | 59 | 73 | 2.0 | 4.0 | 0.00 | 0.00 | 0.00 | 93 | 1019.3 |
| 20260902025403 | 59 | 72 | 2.0 | 4.0 | 0.00 | 0.00 | 0.00 | 93 | 1019.3 |
| 20260902025306 | 59 | 75 | 2.0 | 4.0 | 0.00 | 0.00 | 0.00 | 93 | 1019.2 |
| 20260902025203 | 59 | 81 | 2.0 | 4.0 | 0.00 | 0.00 | 0.00 | 93 | 1019.2 |
| 20260902025019 | 59 | 83 | 1.0 | 4.0 | 0.00 | 0.00 | 0.00 | 93 | 1019.1 |
| 20260902025003 | 59 | 82 | 1.0 | 4.0 | 0.00 | 0.00 | 0.00 | 93 | 1019.1 |
| 20260902024903 | 59 | 82 | 2.0 | 4.0 | 0.00 | 0.00 | 0.00 | 93 | 1019.1 |
| 20260902024816 | 59 | 81 | 1.0 | 4.0 | 0.00 | 0.00 | 0.00 | 93 | 1019.3 |
| 20260902024703 | 59 | 75 | 2.0 | 4.0 | 0.00 | 0.00 | 0.00 | 93 | 1019.3 |
| 20260902024617 | 59 | 78 | 1.0 | 4.0 | 0.00 | 0.00 | 0.00 | 93 | 1019.3 |
| 20260902024503 | 59 | 83 | 2.0 | 4.0 | 0.00 | 0.00 | 0.00 | 93 | 1019.0 |
| 20260902024303 | 59 | 92 | 1.0 | 4.0 | 0.00 | 0.00 | 0.00 | 93 | 1019.1 |
| 20260902024203 | 59 | 89 | 2.0 | 4.0 | 0.00 | 0.00 | 0.00 | 93 | 1019.2 |
| 20260902024103 | 59 | 82 | 1.0 | 4.0 | 0.00 | 0.00 | 0.00 | 93 | 1019.3 |
| 20260902024005 | 59 | 78 | 1.0 | 4.0 | 0.00 | 0.00 | 0.00 | 93 | 1019.1 |
| 20260902023918 | 59 | 70 | 2.0 | 4.0 | 0.00 | 0.00 | 0.00 | 93 | 1019.3 |
| 20260902023803 | 59 | 65 | 1.0 | 4.0 | 0.00 | 0.00 | 0.00 | 93 | 1019.5 |
| 20260902023618 | 59 | 76 | 0.0 | 4.0 | 0.00 | 0.00 | 0.00 | 93 | 1019.3 |
| 20260902023603 | 59 | 75 | 0.0 | 4.0 | 0.00 | 0.00 | 0.00 | 93 | 1019.3 |
| 20260902023503 | 59 | 84 | 1.0 | 4.0 | 0.00 | 0.00 | 0.00 | 93 | 1019.2 |
| 20260902023317 | 59 | 93 | 0.0 | 4.0 | 0.00 | 0.00 | 0.00 | 93 | 1019.4 |
| 20260902023303 | 59 | 95 | 0.0 | 4.0 | 0.00 | 0.00 | 0.00 | 93 | 1019.4 |
| 20260902023205 | 59 | 93 | 1.0 | 4.0 | 0.00 | 0.00 | 0.00 | 93 | 1019.3 |
| 20260902023003 | 59 | 93 | 2.0 | 4.0 | 0.00 | 0.00 | 0.00 | 93 | 1019.3 |
| 20260902022903 | 59 | 89 | 2.0 | 4.0 | 0.00 | 0.00 | 0.00 | 93 | 1019.3 |
| 20260902022803 | 59 | 89 | 2.0 | 4.0 | 0.00 | 0.00 | 0.00 | 93 | 1019.2 |
| 20260902022703 | 59 | 82 | 2.0 | 4.0 | 0.00 | 0.00 | 0.00 | 93 | 1019.2 |
| 20260902022603 | 59 | 77 | 1.0 | 4.0 | 0.00 | 0.00 | 0.00 | 93 | 1019.2 |
| 20260902022503 | 59 | 74 | 2.0 | 4.0 | 0.00 | 0.00 | 0.00 | 93 | 1019.4 |
| 20260902022405 | 59 | 77 | 2.0 | 4.0 | 0.00 | 0.00 | 0.00 | 93 | 1019.4 |
| 20260902022306 | 59 | 79 | 2.0 | 4.0 | 0.00 | 0.00 | 0.00 | 93 | 1019.2 |
| 20260902022203 | 59 | 74 | 2.0 | 4.0 | 0.00 | 0.00 | 0.00 | 93 | 1019.2 |
| 20260902022103 | 59 | 77 | 1.0 | 4.0 | 0.00 | 0.00 | 0.00 | 93 | 1019.4 |
| 20260902022003 | 59 | 85 | 2.0 | 4.0 | 0.00 | 0.00 | 0.00 | 93 | 1019.5 |
| 20260902021908 | 59 | 90 | 2.0 | 4.0 | 0.00 | 0.00 | 0.00 | 93 | 1019.3 |
| 20260902021805 | 59 | 81 | 2.0 | 4.0 | 0.00 | 0.00 | 0.00 | 93 | 1019.4 |
| 20260902021703 | 59 | 90 | 2.0 | 4.0 | 0.00 | 0.00 | 0.00 | 93 | 1019.1 |
| 20260902021603 | 59 | 96 | 2.0 | 4.0 | 0.00 | 0.00 | 0.00 | 93 | 1019.4 |
| 20260902021518 | 59 | 93 | 2.0 | 4.0 | 0.00 | 0.00 | 0.00 | 93 | 1019.1 |
| 20260902021503 | 60 | 92 | 2.0 | 4.0 | 0.00 | 0.00 | 0.00 | 93 | 1019.6 |
| 20260902021417 | 60 | 87 | 2.0 | 4.0 | 0.00 | 0.00 | 0.00 | 93 | 1019.5 |
| 20260902021403 | 60 | 89 | 2.0 | 4.0 | 0.00 | 0.00 | 0.00 | 93 | 1019.5 |
| 20260902021317 | 59 | 92 | 2.0 | 4.0 | 0.00 | 0.00 | 0.00 | 92 | 1019.3 |
| 20260902021005 | 60 | 90 | 2.0 | 7.0 | 0.00 | 0.00 | 0.00 | 92 | 1019.5 |
| 20260902020903 | 60 | 90 | 2.0 | 7.0 | 0.00 | 0.00 | 0.00 | 92 | 1019.6 |
| 20260902020803 | 60 | 90 | 2.0 | 7.0 | 0.00 | 0.00 | 0.00 | 92 | 1019.5 |
| 20260902020703 | 60 | 89 | 4.0 | 7.0 | 0.00 | 0.00 | 0.00 | 92 | 1019.4 |
| 20260902020617 | 60 | 88 | 2.0 | 6.0 | 0.00 | 0.00 | 0.00 | 92 | 1019.4 |
| 20260902020603 | 60 | 87 | 2.0 | 6.0 | 0.00 | 0.00 | 0.00 | 92 | 1019.4 |
| 20260902020503 | 60 | 85 | 2.0 | 4.0 | 0.00 | 0.00 | 0.00 | 92 | 1019.6 |
| 20260902020305 | 60 | 76 | 2.0 | 4.0 | 0.00 | 0.00 | 0.00 | 92 | 1019.5 |
| 20260902020203 | 60 | 79 | 2.0 | 4.0 | 0.00 | 0.00 | 0.00 | 92 | 1019.6 |
| 20260902020103 | 60 | 88 | 1.0 | 4.0 | 0.00 | 0.00 | 0.00 | 92 | 1019.6 |
| 20260902020003 | 60 | 82 | 1.0 | 4.0 | 0.00 | 0.00 | 0.00 | 92 | 1019.6 |
| 20260902015917 | 60 | 85 | 1.0 | 4.0 | 0.00 | 0.00 | 0.00 | 92 | 1019.6 |
| 20260902015903 | 60 | 84 | 2.0 | 6.0 | 0.00 | 0.00 | 0.00 | 92 | 1019.7 |
| 20260902015803 | 60 | 81 | 3.0 | 6.0 | 0.00 | 0.00 | 0.00 | 92 | 1019.5 |
| 20260902015617 | 60 | 70 | 2.0 | 6.0 | 0.00 | 0.00 | 0.00 | 92 | 1019.7 |
| 20260902015603 | 60 | 68 | 2.0 | 6.0 | 0.00 | 0.00 | 0.00 | 92 | 1019.7 |
| 20260902015503 | 60 | 70 | 1.0 | 6.0 | 0.00 | 0.00 | 0.00 | 92 | 1019.6 |
| 20260902015416 | 60 | 67 | 4.0 | 6.0 | 0.00 | 0.00 | 0.00 | 92 | 1019.7 |
| 20260902015306 | 60 | 79 | 2.0 | 4.0 | 0.00 | 0.00 | 0.00 | 92 | 1019.4 |
| 20260902015103 | 60 | 85 | 1.0 | 2.0 | 0.00 | 0.00 | 0.00 | 92 | 1019.6 |
| 20260902015003 | 60 | 85 | 0.0 | 2.0 | 0.00 | 0.00 | 0.00 | 92 | 1019.5 |
| 20260902014903 | 60 | 81 | 1.0 | 2.0 | 0.00 | 0.00 | 0.00 | 92 | 1019.6 |
| 20260902014803 | 60 | 76 | 1.0 | 2.0 | 0.00 | 0.00 | 0.00 | 92 | 1019.4 |
| 20260902014703 | 60 | 70 | 0.0 | 2.0 | 0.00 | 0.00 | 0.00 | 92 | 1019.6 |
| 20260902014603 | 60 | 68 | 1.0 | 2.0 | 0.00 | 0.00 | 0.00 | 92 | 1019.7 |
| 20260902014503 | 60 | 70 | 1.0 | 2.0 | 0.00 | 0.00 | 0.00 | 92 | 1019.8 |
| 20260902014403 | 60 | 69 | 2.0 | 4.0 | 0.00 | 0.00 | 0.00 | 92 | 1019.7 |
| 20260902014303 | 60 | 72 | 2.0 | 4.0 | 0.00 | 0.00 | 0.00 | 92 | 1019.6 |
| 20260902014203 | 60 | 76 | 0.0 | 4.0 | 0.00 | 0.00 | 0.00 | 92 | 1019.5 |
| 20260902014118 | 60 | 78 | 0.0 | 4.0 | 0.00 | 0.00 | 0.00 | 92 | 1019.6 |
| 20260902014103 | 60 | 76 | 0.0 | 4.0 | 0.00 | 0.00 | 0.00 | 92 | 1019.6 |
| 20260902014003 | 60 | 73 | 1.0 | 4.0 | 0.00 | 0.00 | 0.00 | 92 | 1019.5 |
| 20260902013803 | 60 | 70 | 2.0 | 4.0 | 0.00 | 0.00 | 0.00 | 91 | 1019.5 |
| 20260902013703 | 60 | 66 | 1.0 | 4.0 | 0.00 | 0.00 | 0.00 | 91 | 1019.5 |
| 20260902013603 | 60 | 66 | 1.0 | 4.0 | 0.00 | 0.00 | 0.00 | 91 | 1019.5 |
| 20260902013503 | 60 | 69 | 2.0 | 4.0 | 0.00 | 0.00 | 0.00 | 91 | 1019.7 |
| 20260902013403 | 60 | 76 | 1.0 | 4.0 | 0.00 | 0.00 | 0.00 | 91 | 1019.7 |
| 20260902013303 | 60 | 79 | 1.0 | 4.0 | 0.00 | 0.00 | 0.00 | 91 | 1019.5 |
| 20260902013203 | 60 | 84 | 2.0 | 4.0 | 0.00 | 0.00 | 0.00 | 91 | 1019.6 |
| 20260902013103 | 60 | 87 | 1.0 | 4.0 | 0.00 | 0.00 | 0.00 | 91 | 1019.5 |
| 20260902013003 | 60 | 95 | 1.0 | 4.0 | 0.00 | 0.00 | 0.00 | 91 | 1019.4 |
| 20260902012903 | 60 | 94 | 2.0 | 4.0 | 0.00 | 0.00 | 0.00 | 91 | 1019.5 |
| 20260902012803 | 60 | 89 | 1.0 | 4.0 | 0.00 | 0.00 | 0.00 | 91 | 1019.3 |
| 20260902012703 | 60 | 93 | 2.0 | 4.0 | 0.00 | 0.00 | 0.00 | 91 | 1019.5 |
| 20260902012617 | 60 | 93 | 2.0 | 4.0 | 0.00 | 0.00 | 0.00 | 91 | 1019.6 |
| 20260902012603 | 60 | 90 | 2.0 | 4.0 | 0.00 | 0.00 | 0.00 | 91 | 1019.6 |
| 20260902012503 | 60 | 85 | 0.0 | 4.0 | 0.00 | 0.00 | 0.00 | 91 | 1019.7 |
| 20260902012309 | 60 | 88 | 2.0 | 4.0 | 0.00 | 0.00 | 0.00 | 91 | 1019.6 |
| 20260902012203 | 60 | 82 | 3.0 | 4.0 | 0.00 | 0.00 | 0.00 | 91 | 1019.7 |
| 20260902012103 | 60 | 87 | 2.0 | 4.0 | 0.00 | 0.00 | 0.00 | 91 | 1019.6 |
| 20260902012003 | 60 | 90 | 2.0 | 4.0 | 0.00 | 0.00 | 0.00 | 91 | 1019.6 |
| 20260902011917 | 60 | 86 | 2.0 | 4.0 | 0.00 | 0.00 | 0.00 | 91 | 1019.5 |
| 20260902011903 | 60 | 87 | 1.0 | 4.0 | 0.00 | 0.00 | 0.00 | 91 | 1019.4 |
| 20260902011803 | 60 | 83 | 0.0 | 4.0 | 0.00 | 0.00 | 0.00 | 91 | 1019.6 |
| 20260902011716 | 60 | 80 | 1.0 | 4.0 | 0.00 | 0.00 | 0.00 | 90 | 1019.5 |
| 20260902011603 | 60 | 80 | 2.0 | 4.0 | 0.00 | 0.00 | 0.00 | 90 | 1019.3 |
| 20260902011303 | 60 | 74 | 1.0 | 4.0 | 0.00 | 0.00 | 0.00 | 90 | 1019.4 |
| 20260902011203 | 60 | 74 | 1.0 | 4.0 | 0.00 | 0.00 | 0.00 | 90 | 1019.4 |
| 20260902011003 | 60 | 80 | 2.0 | 4.0 | 0.00 | 0.00 | 0.00 | 90 | 1019.5 |
| 20260902010903 | 60 | 82 | 1.0 | 4.0 | 0.00 | 0.00 | 0.00 | 90 | 1019.6 |
| 20260902010803 | 60 | 82 | 2.0 | 4.0 | 0.00 | 0.00 | 0.00 | 90 | 1019.5 |
| 20260902010703 | 60 | 82 | 2.0 | 4.0 | 0.00 | 0.00 | 0.00 | 90 | 1019.7 |
| 20260902010603 | 61 | 75 | 2.0 | 4.0 | 0.00 | 0.00 | 0.00 | 90 | 1019.6 |
| 20260902010503 | 61 | 65 | 1.0 | 4.0 | 0.00 | 0.00 | 0.00 | 90 | 1019.6 |
| 20260902010418 | 61 | 64 | 1.0 | 4.0 | 0.00 | 0.00 | 0.00 | 90 | 1019.6 |
| 20260902010403 | 61 | 63 | 1.0 | 4.0 | 0.00 | 0.00 | 0.00 | 90 | 1019.6 |
| 20260902010303 | 61 | 64 | 1.0 | 4.0 | 0.00 | 0.00 | 0.00 | 90 | 1019.6 |
| 20260902010003 | 61 | 75 | 2.0 | 6.0 | 0.00 | 0.00 | 0.00 | 90 | 1019.6 |
| 20260902005904 | 61 | 77 | 1.0 | 6.0 | 0.00 | 0.00 | 0.00 | 90 | 1019.4 |
| 20260902005803 | 61 | 72 | 2.0 | 6.0 | 0.00 | 0.00 | 0.00 | 90 | 1019.6 |
| 20260902005703 | 61 | 67 | 3.0 | 6.0 | 0.00 | 0.00 | 0.00 | 90 | 1019.4 |
| 20260902005603 | 61 | 67 | 2.0 | 6.0 | 0.00 | 0.00 | 0.00 | 90 | 1019.5 |
| 20260902005503 | 61 | 65 | 2.0 | 6.0 | 0.00 | 0.00 | 0.00 | 90 | 1019.3 |
| 20260902005403 | 61 | 65 | 1.0 | 6.0 | 0.00 | 0.00 | 0.00 | 90 | 1019.4 |
| 20260902005306 | 61 | 67 | 2.0 | 6.0 | 0.00 | 0.00 | 0.00 | 89 | 1019.5 |
| 20260902005203 | 61 | 73 | 2.0 | 6.0 | 0.00 | 0.00 | 0.00 | 89 | 1019.4 |
| 20260902005103 | 61 | 77 | 3.0 | 6.0 | 0.00 | 0.00 | 0.00 | 89 | 1019.5 |
| 20260902005003 | 61 | 89 | 1.0 | 4.0 | 0.00 | 0.00 | 0.00 | 89 | 1019.5 |
| 20260902004903 | 61 | 89 | 2.0 | 4.0 | 0.00 | 0.00 | 0.00 | 89 | 1019.3 |
| 20260902004818 | 61 | 87 | 1.0 | 4.0 | 0.00 | 0.00 | 0.00 | 89 | 1019.4 |
| 20260902004803 | 61 | 86 | 1.0 | 4.0 | 0.00 | 0.00 | 0.00 | 89 | 1019.4 |
| 20260902004703 | 61 | 82 | 2.0 | 4.0 | 0.00 | 0.00 | 0.00 | 89 | 1019.6 |
| 20260902004503 | 61 | 75 | 2.0 | 4.0 | 0.00 | 0.00 | 0.00 | 89 | 1019.7 |
| 20260902004403 | 61 | 72 | 2.0 | 4.0 | 0.00 | 0.00 | 0.00 | 89 | 1019.6 |
| 20260902004317 | 61 | 75 | 2.0 | 4.0 | 0.00 | 0.00 | 0.00 | 89 | 1019.6 |
| 20260902004303 | 61 | 78 | 1.0 | 4.0 | 0.00 | 0.00 | 0.00 | 89 | 1019.8 |
| 20260902004203 | 61 | 76 | 2.0 | 4.0 | 0.00 | 0.00 | 0.00 | 89 | 1019.6 |
| 20260902004118 | 61 | 76 | 1.0 | 4.0 | 0.00 | 0.00 | 0.00 | 89 | 1019.6 |
| 20260902004016 | 61 | 73 | 2.0 | 4.0 | 0.00 | 0.00 | 0.00 | 89 | 1019.6 |
| 20260902004003 | 61 | 69 | 2.0 | 4.0 | 0.00 | 0.00 | 0.00 | 89 | 1019.6 |
| 20260902003917 | 61 | 67 | 2.0 | 4.0 | 0.00 | 0.00 | 0.00 | 89 | 1019.7 |
| 20260902003718 | 61 | 64 | 2.0 | 4.0 | 0.00 | 0.00 | 0.00 | 89 | 1019.9 |
| 20260902003603 | 61 | 61 | 2.0 | 4.0 | 0.00 | 0.00 | 0.00 | 89 | 1019.7 |
| 20260902003418 | 61 | 65 | 2.0 | 4.0 | 0.00 | 0.00 | 0.00 | 89 | 1019.8 |
| 20260902003403 | 61 | 66 | 2.0 | 4.0 | 0.00 | 0.00 | 0.00 | 89 | 1019.8 |
| 20260902003303 | 61 | 66 | 2.0 | 4.0 | 0.00 | 0.00 | 0.00 | 89 | 1019.5 |
| 20260902003103 | 61 | 64 | 1.0 | 4.0 | 0.00 | 0.00 | 0.00 | 89 | 1019.8 |
| 20260902003003 | 61 | 63 | 2.0 | 4.0 | 0.00 | 0.00 | 0.00 | 89 | 1019.6 |
| 20260902002903 | 61 | 63 | 2.0 | 4.0 | 0.00 | 0.00 | 0.00 | 89 | 1019.6 |
| 20260902002803 | 61 | 67 | 3.0 | 4.0 | 0.00 | 0.00 | 0.00 | 88 | 1019.7 |
| 20260902002703 | 61 | 61 | 2.0 | 4.0 | 0.00 | 0.00 | 0.00 | 88 | 1019.5 |
| 20260902002603 | 61 | 67 | 2.0 | 4.0 | 0.00 | 0.00 | 0.00 | 88 | 1019.8 |
| 20260902002503 | 61 | 69 | 2.0 | 4.0 | 0.00 | 0.00 | 0.00 | 88 | 1019.5 |
| 20260902002403 | 61 | 73 | 2.0 | 4.0 | 0.00 | 0.00 | 0.00 | 88 | 1019.6 |
| 20260902002306 | 61 | 62 | 2.0 | 4.0 | 0.00 | 0.00 | 0.00 | 88 | 1019.7 |
| 20260902002203 | 62 | 73 | 0.0 | 4.0 | 0.00 | 0.00 | 0.00 | 88 | 1019.5 |
| 20260902002103 | 61 | 63 | 1.0 | 4.0 | 0.00 | 0.00 | 0.00 | 88 | 1019.7 |
| 20260902002003 | 62 | 63 | 1.0 | 4.0 | 0.00 | 0.00 | 0.00 | 88 | 1019.5 |
| 20260902001903 | 61 | 61 | 2.0 | 4.0 | 0.00 | 0.00 | 0.00 | 88 | 1019.7 |
| 20260902001818 | 61 | 65 | 2.0 | 4.0 | 0.00 | 0.00 | 0.00 | 88 | 1019.9 |
| 20260902001803 | 61 | 64 | 2.0 | 4.0 | 0.00 | 0.00 | 0.00 | 88 | 1019.9 |
| 20260902001703 | 62 | 61 | 2.0 | 4.0 | 0.00 | 0.00 | 0.00 | 88 | 1019.4 |
| 20260902001503 | 62 | 69 | 1.0 | 4.0 | 0.00 | 0.00 | 0.00 | 88 | 1019.5 |
| 20260902001403 | 62 | 67 | 2.0 | 4.0 | 0.00 | 0.00 | 0.00 | 88 | 1019.6 |
| 20260902001303 | 62 | 67 | 2.0 | 4.0 | 0.00 | 0.00 | 0.00 | 88 | 1019.6 |
| 20260902001203 | 62 | 70 | 2.0 | 4.0 | 0.00 | 0.00 | 0.00 | 87 | 1019.6 |
| 20260902001103 | 62 | 72 | 2.0 | 4.0 | 0.00 | 0.00 | 0.00 | 87 | 1019.8 |
| 20260902001003 | 62 | 82 | 2.0 | 4.0 | 0.00 | 0.00 | 0.00 | 87 | 1019.8 |
| 20260902000903 | 62 | 86 | 1.0 | 4.0 | 0.00 | 0.00 | 0.00 | 87 | 1019.6 |
| 20260902000803 | 62 | 94 | 1.0 | 4.0 | 0.00 | 0.00 | 0.00 | 87 | 1019.6 |
| 20260902000718 | 62 | 95 | 1.0 | 4.0 | 0.00 | 0.00 | 0.00 | 87 | 1019.5 |
| 20260902000703 | 62 | 95 | 1.0 | 4.0 | 0.00 | 0.00 | 0.00 | 87 | 1019.6 |
| 20260902000603 | 62 | 97 | 2.0 | 4.0 | 0.00 | 0.00 | 0.00 | 87 | 1019.6 |
| 20260902000403 | 62 | 89 | 1.0 | 4.0 | 0.00 | 0.00 | 0.00 | 87 | 1020.0 |
| 20260902000304 | 62 | 79 | 0.0 | 4.0 | 0.00 | 0.00 | 0.00 | 87 | 1019.5 |
| 20260902000204 | 62 | 82 | 2.0 | 4.0 | 0.00 | 0.00 | 0.00 | 87 | 1019.7 |
| 20260902000103 | 62 | 83 | 2.0 | 4.0 | 0.00 | 0.00 | 0.00 | 87 | 1020.0 |
| 20260902000004 | 62 | 79 | 2.0 | 4.0 | 0.00 | 0.00 | 0.00 | 87 | 1019.9 |
| 20260901235903 | 62 | 76 | 2.0 | 4.0 | 0.00 | 0.00 | 0.00 | 86 | 1019.7 |
| 20260901235803 | 62 | 79 | 1.0 | 4.0 | 0.00 | 0.00 | 0.00 | 86 | 1019.6 |
| 20260901235703 | 62 | 80 | 1.0 | 4.0 | 0.00 | 0.00 | 0.00 | 86 | 1019.4 |
| 20260901235603 | 62 | 79 | 2.0 | 4.0 | 0.00 | 0.00 | 0.00 | 86 | 1019.5 |
| 20260901235503 | 62 | 83 | 2.0 | 4.0 | 0.00 | 0.00 | 0.00 | 86 | 1019.6 |
| 20260901235403 | 62 | 88 | 2.0 | 4.0 | 0.00 | 0.00 | 0.00 | 86 | 1019.4 |
| 20260901235307 | 63 | 89 | 2.0 | 4.0 | 0.00 | 0.00 | 0.00 | 86 | 1019.5 |
| 20260901235203 | 63 | 87 | 2.0 | 4.0 | 0.00 | 0.00 | 0.00 | 86 | 1019.5 |
| 20260901235103 | 63 | 80 | 1.0 | 4.0 | 0.00 | 0.00 | 0.00 | 86 | 1019.4 |
| 20260901235003 | 63 | 78 | 2.0 | 4.0 | 0.00 | 0.00 | 0.00 | 86 | 1019.2 |
| 20260901234903 | 63 | 79 | 2.0 | 4.0 | 0.00 | 0.00 | 0.00 | 85 | 1019.5 |
| 20260901234803 | 63 | 76 | 2.0 | 4.0 | 0.00 | 0.00 | 0.00 | 85 | 1019.7 |
| 20260901234703 | 63 | 78 | 1.0 | 4.0 | 0.00 | 0.00 | 0.00 | 85 | 1019.3 |
| 20260901234603 | 63 | 84 | 2.0 | 4.0 | 0.00 | 0.00 | 0.00 | 85 | 1019.4 |
| 20260901234503 | 63 | 82 | 1.0 | 4.0 | 0.00 | 0.00 | 0.00 | 85 | 1019.3 |
| 20260901234403 | 63 | 83 | 2.0 | 4.0 | 0.00 | 0.00 | 0.00 | 85 | 1019.3 |
| 20260901234303 | 63 | 82 | 2.0 | 4.0 | 0.00 | 0.00 | 0.00 | 85 | 1019.2 |
| 20260901234203 | 63 | 81 | 2.0 | 4.0 | 0.00 | 0.00 | 0.00 | 85 | 1019.5 |
| 20260901234103 | 63 | 78 | 2.0 | 4.0 | 0.00 | 0.00 | 0.00 | 85 | 1019.5 |
| 20260901234018 | 63 | 73 | 2.0 | 4.0 | 0.00 | 0.00 | 0.00 | 85 | 1019.4 |
| 20260901234003 | 63 | 72 | 2.0 | 4.0 | 0.00 | 0.00 | 0.00 | 85 | 1019.4 |
| 20260901233903 | 63 | 73 | 1.0 | 4.0 | 0.00 | 0.00 | 0.00 | 85 | 1019.4 |
| 20260901233703 | 63 | 79 | 2.0 | 4.0 | 0.00 | 0.00 | 0.00 | 85 | 1019.4 |
| 20260901233603 | 63 | 77 | 2.0 | 4.0 | 0.00 | 0.00 | 0.00 | 85 | 1019.3 |
| 20260901233503 | 63 | 80 | 2.0 | 4.0 | 0.00 | 0.00 | 0.00 | 84 | 1019.0 |
| 20260901233403 | 63 | 79 | 1.0 | 4.0 | 0.00 | 0.00 | 0.00 | 84 | 1019.3 |
| 20260901233303 | 63 | 77 | 2.0 | 4.0 | 0.00 | 0.00 | 0.00 | 84 | 1019.5 |
| 20260901233217 | 63 | 77 | 2.0 | 4.0 | 0.00 | 0.00 | 0.00 | 84 | 1019.3 |
| 20260901233203 | 63 | 76 | 2.0 | 4.0 | 0.00 | 0.00 | 0.00 | 84 | 1019.3 |
| 20260901233117 | 63 | 76 | 2.0 | 4.0 | 0.00 | 0.00 | 0.00 | 84 | 1019.4 |
| 20260901233103 | 63 | 78 | 1.0 | 4.0 | 0.00 | 0.00 | 0.00 | 84 | 1019.3 |